CAL4 RCTP-KSFO

Flight info

Callsign CAL4
Flight time 11h 32m
Altitude 35000
Route MOLKA1D MOLKA M750 MADOG Y753 JAKAL A1 KEC Y43 ISEBI Y81 TASOT Y57 POROT Y809 IDLAN Y812 ADNAP OTR5 KALNA DCT 43N160E 45N170E 47N180E 49N170W 50N160W 51N150W 51N146W DCT 50N42 DCT 48N137W 46N132W DCT 45N30 DCT NATTE DCT AMAKR BDEGA4
Aircraft A359/H-SDE2E3GHIJ3J4J5LM1ORWXY/LB1D1

Departure

Time 2026-05-07 02:36
Airport Taiwan Taoyuan International Airport (RCTP)

Arrival

Time 2026-05-07 14:08
Airport San Francisco International Airport (KSFO)
Time Latitude Longitude Altitude Speed Heading
2026-05-07 01:35 25.08083 121.23272 110 ft 0 kts 139°
2026-05-07 02:24 25.08086 121.23269 107 ft 3 kts 139°
2026-05-07 02:24 25.08107 121.23249 105 ft 4 kts 139°
2026-05-07 02:25 25.08127 121.23230 105 ft 4 kts 139°
2026-05-07 02:25 25.08147 121.23211 104 ft 3 kts 139°
2026-05-07 02:25 25.08164 121.23197 104 ft 4 kts 170°
2026-05-07 02:25 25.08172 121.23193 105 ft 4 kts 225°
2026-05-07 02:26 25.08181 121.23211 105 ft 4 kts 247°
2026-05-07 02:26 25.08192 121.23236 105 ft 3 kts 232°
2026-05-07 02:26 25.08194 121.23239 104 ft 0 kts 230°
2026-05-07 02:29 25.08185 121.23227 105 ft 5 kts 230°
2026-05-07 02:29 25.08160 121.23184 106 ft 6 kts 256°
2026-05-07 02:29 25.08178 121.23147 107 ft 6 kts 318°
2026-05-07 02:29 25.08211 121.23123 107 ft 6 kts 342°
2026-05-07 02:30 25.08244 121.23136 107 ft 5 kts 40°
2026-05-07 02:30 25.08273 121.23172 107 ft 10 kts 47°
2026-05-07 02:30 25.08324 121.23236 105 ft 12 kts 49°
2026-05-07 02:30 25.08377 121.23304 106 ft 12 kts 49°
2026-05-07 02:31 25.08432 121.23374 107 ft 12 kts 49°
2026-05-07 02:31 25.08488 121.23445 106 ft 13 kts 49°
2026-05-07 02:31 25.08546 121.23518 106 ft 13 kts 49°
2026-05-07 02:31 25.08606 121.23595 107 ft 13 kts 49°
2026-05-07 02:32 25.08668 121.23675 107 ft 14 kts 49°
2026-05-07 02:32 25.08733 121.23758 107 ft 14 kts 49°
2026-05-07 02:32 25.08799 121.23843 107 ft 15 kts 49°
2026-05-07 02:32 25.08868 121.23928 107 ft 15 kts 49°
2026-05-07 02:33 25.08938 121.24017 106 ft 15 kts 49°
2026-05-07 02:33 25.09008 121.24106 107 ft 16 kts 49°
2026-05-07 02:33 25.09080 121.24197 107 ft 16 kts 49°
2026-05-07 02:33 25.09152 121.24289 107 ft 16 kts 49°
2026-05-07 02:34 25.09225 121.24381 106 ft 14 kts 49°
2026-05-07 02:34 25.09289 121.24453 107 ft 12 kts 22°
2026-05-07 02:34 25.09356 121.24416 107 ft 11 kts 320°
2026-05-07 02:34 25.09416 121.24360 107 ft 11 kts 320°
2026-05-07 02:35 25.09415 121.24300 106 ft 8 kts 229°
2026-05-07 02:35 25.09407 121.24291 107 ft 0 kts 228°
2026-05-07 02:35 25.09329 121.24193 107 ft 45 kts 229°
2026-05-07 02:35 25.08979 121.23744 106 ft 107 kts 229°
2026-05-07 02:36 25.08366 121.22967 106 ft 160 kts 229°
2026-05-07 02:36 25.07579 121.21989 596 ft 165 kts 230°
2026-05-07 02:36 25.06796 121.21040 1201 ft 169 kts 229°
2026-05-07 02:36 25.06010 121.20058 1664 ft 177 kts 229°
2026-05-07 02:37 25.05183 121.18975 1876 ft 193 kts 232°
2026-05-07 02:37 25.04682 121.17561 2127 ft 208 kts 266°
2026-05-07 02:37 25.05086 121.16031 2463 ft 221 kts 303°
2026-05-07 02:37 25.06214 121.14783 2726 ft 241 kts 319°
2026-05-07 02:38 25.07570 121.13595 3011 ft 257 kts 320°
2026-05-07 02:38 25.08995 121.12347 3494 ft 263 kts 319°
2026-05-07 02:38 25.10425 121.11070 4067 ft 267 kts 317°
2026-05-07 02:38 25.11863 121.09768 4673 ft 268 kts 317°
2026-05-07 02:39 25.13254 121.08499 5205 ft 272 kts 317°
2026-05-07 02:39 25.14720 121.07156 5791 ft 275 kts 316°
2026-05-07 02:39 25.16193 121.05803 6406 ft 277 kts 316°
2026-05-07 02:39 25.17725 121.04481 6993 ft 281 kts 323°
2026-05-07 02:40 25.19530 121.03634 7676 ft 281 kts 341°
2026-05-07 02:40 25.21423 121.03236 8614 ft 273 kts 353°
2026-05-07 02:40 25.23287 121.03448 9482 ft 270 kts 15°
2026-05-07 02:40 25.24927 121.04498 9952 ft 282 kts 41°
2026-05-07 02:41 25.26201 121.06219 10195 ft 299 kts 57°
2026-05-07 02:41 25.27215 121.08296 10443 ft 315 kts 64°
2026-05-07 02:41 25.28133 121.10553 10699 ft 329 kts 66°
2026-05-07 02:41 25.29080 121.12913 10967 ft 343 kts 65°
2026-05-07 02:42 25.29797 121.15473 11160 ft 357 kts 85°
2026-05-07 02:42 25.29532 121.18225 11388 ft 367 kts 110°
2026-05-07 02:42 25.28404 121.20730 11710 ft 372 kts 121°
2026-05-07 02:42 25.27560 121.23456 12078 ft 380 kts 97°
2026-05-07 02:43 25.27711 121.26363 12517 ft 384 kts 75°
2026-05-07 02:43 25.28825 121.29034 12985 ft 384 kts 53°
2026-05-07 02:43 25.30426 121.31387 13481 ft 386 kts 51°
2026-05-07 02:43 25.31993 121.33828 13915 ft 389 kts 54°
2026-05-07 02:44 25.33478 121.36365 14176 ft 398 kts 57°
2026-05-07 02:44 25.34936 121.39008 14340 ft 407 kts 58°
2026-05-07 02:44 25.36392 121.41735 14521 ft 415 kts 58°
2026-05-07 02:44 25.37855 121.44523 14708 ft 423 kts 59°
2026-05-07 02:45 25.39327 121.47354 14978 ft 426 kts 59°
2026-05-07 02:45 25.40803 121.50208 15290 ft 429 kts 59°
2026-05-07 02:45 25.42289 121.53090 15593 ft 432 kts 59°
2026-05-07 02:45 25.43778 121.55982 15929 ft 434 kts 59°
2026-05-07 02:46 25.45274 121.58892 16245 ft 436 kts 59°
2026-05-07 02:46 25.46775 121.61813 16576 ft 438 kts 59°
2026-05-07 02:46 25.48282 121.64750 16905 ft 440 kts 59°
2026-05-07 02:46 25.49797 121.67705 17227 ft 442 kts 59°
2026-05-07 02:47 25.51315 121.70666 17548 ft 444 kts 59°
2026-05-07 02:47 25.52826 121.73616 17869 ft 446 kts 59°
2026-05-07 02:47 25.54358 121.76609 18173 ft 448 kts 59°
2026-05-07 02:47 25.55900 121.79624 18450 ft 450 kts 59°
2026-05-07 02:48 25.57443 121.82643 18707 ft 452 kts 59°
2026-05-07 02:48 25.58998 121.85687 18981 ft 454 kts 59°
2026-05-07 02:48 25.60553 121.88733 19251 ft 456 kts 59°
2026-05-07 02:48 25.62120 121.91806 19516 ft 458 kts 59°
2026-05-07 02:49 25.63689 121.94883 19797 ft 460 kts 59°
2026-05-07 02:49 25.65265 121.97977 20050 ft 462 kts 59°
2026-05-07 02:49 25.66848 122.01086 20305 ft 464 kts 59°
2026-05-07 02:49 25.68439 122.04213 20574 ft 466 kts 59°
2026-05-07 02:50 25.70031 122.07345 20839 ft 468 kts 59°
2026-05-07 02:50 25.71635 122.10501 21106 ft 470 kts 59°
2026-05-07 02:50 25.73243 122.13669 21379 ft 473 kts 59°
2026-05-07 02:50 25.74862 122.16860 21658 ft 475 kts 59°
2026-05-07 02:51 25.76485 122.20062 21934 ft 477 kts 59°
2026-05-07 02:51 25.78114 122.23276 22216 ft 479 kts 59°
2026-05-07 02:51 25.79752 122.26512 22511 ft 481 kts 59°
2026-05-07 02:51 25.81392 122.29755 22798 ft 483 kts 59°
2026-05-07 02:52 25.83042 122.33018 23082 ft 486 kts 59°
2026-05-07 02:52 25.84678 122.36257 23364 ft 488 kts 59°
2026-05-07 02:52 25.86344 122.39556 23623 ft 490 kts 59°
2026-05-07 02:52 25.88014 122.42868 23853 ft 492 kts 59°
2026-05-07 02:53 25.89689 122.46190 24083 ft 494 kts 59°
2026-05-07 02:53 25.91310 122.49408 24318 ft 496 kts 59°
2026-05-07 02:53 25.92993 122.52752 24564 ft 498 kts 59°
2026-05-07 02:53 25.94691 122.56127 24839 ft 500 kts 59°
2026-05-07 02:54 25.96391 122.59511 25091 ft 502 kts 59°
2026-05-07 02:54 25.98093 122.62899 25356 ft 504 kts 59°
2026-05-07 02:54 25.99804 122.66308 25652 ft 506 kts 59°
2026-05-07 02:54 26.01521 122.69734 25949 ft 508 kts 59°
2026-05-07 02:55 26.03244 122.73171 26243 ft 510 kts 59°
2026-05-07 02:55 26.04975 122.76628 26560 ft 513 kts 59°
2026-05-07 02:55 26.06713 122.80102 26853 ft 515 kts 59°
2026-05-07 02:55 26.08458 122.83594 27161 ft 517 kts 59°
2026-05-07 02:56 26.10209 122.87098 27457 ft 520 kts 59°
2026-05-07 02:56 26.11967 122.90621 27743 ft 522 kts 59°
2026-05-07 02:56 26.13733 122.94161 28029 ft 525 kts 59°
2026-05-07 02:56 26.15509 122.97725 28306 ft 527 kts 59°
2026-05-07 02:57 26.17289 123.01300 28584 ft 529 kts 59°
2026-05-07 02:57 26.19075 123.04891 28857 ft 531 kts 59°
2026-05-07 02:57 26.20870 123.08501 29114 ft 533 kts 59°
2026-05-07 02:57 26.22668 123.12121 29361 ft 536 kts 59°
2026-05-07 02:58 26.24475 123.15761 29626 ft 537 kts 59°
2026-05-07 02:58 26.26283 123.19408 30020 ft 537 kts 59°
2026-05-07 02:58 26.28085 123.23044 30315 ft 536 kts 59°
2026-05-07 02:58 26.29884 123.26679 30618 ft 536 kts 59°
2026-05-07 02:59 26.31684 123.30318 30938 ft 535 kts 59°
2026-05-07 02:59 26.33451 123.33893 31255 ft 534 kts 59°
2026-05-07 02:59 26.35240 123.37515 31546 ft 533 kts 59°
2026-05-07 02:59 26.37028 123.41138 31861 ft 532 kts 59°
2026-05-07 03:00 26.38809 123.44751 32166 ft 531 kts 59°
2026-05-07 03:00 26.40585 123.48356 32468 ft 530 kts 59°
2026-05-07 03:00 26.42359 123.51959 32761 ft 530 kts 59°
2026-05-07 03:00 26.44130 123.55559 33061 ft 529 kts 59°
2026-05-07 03:01 26.45898 123.59158 33336 ft 528 kts 59°
2026-05-07 03:01 26.47659 123.62743 33618 ft 527 kts 58°
2026-05-07 03:01 26.49420 123.66331 33891 ft 527 kts 58°
2026-05-07 03:01 26.51178 123.69918 34131 ft 526 kts 58°
2026-05-07 03:02 26.52935 123.73503 34323 ft 526 kts 58°
2026-05-07 03:02 26.54094 123.75872 34474 ft 526 kts 58°
2026-05-07 03:02 26.55849 123.79459 34651 ft 526 kts 58°
2026-05-07 03:02 26.57600 123.83041 34866 ft 526 kts 58°
2026-05-07 03:03 26.59357 123.86637 34976 ft 528 kts 58°
2026-05-07 03:03 26.61715 123.91467 34995 ft 532 kts 58°
2026-05-07 03:03 26.64665 123.97510 34990 ft 532 kts 58°
2026-05-07 03:04 26.68908 124.04211 34991 ft 526 kts 47°
2026-05-07 03:04 26.73594 124.10488 34992 ft 526 kts 46°
2026-05-07 03:05 26.78338 124.16734 34997 ft 527 kts 46°
2026-05-07 03:05 26.83055 124.23011 34996 ft 527 kts 46°
2026-05-07 03:06 26.87755 124.29319 34996 ft 527 kts 46°
2026-05-07 03:06 26.92447 124.35639 34999 ft 528 kts 46°
2026-05-07 03:07 26.97140 124.41967 35002 ft 528 kts 47°
2026-05-07 03:07 27.01831 124.48303 34999 ft 528 kts 47°
2026-05-07 03:08 27.06536 124.54654 35004 ft 529 kts 47°
2026-05-07 03:08 27.11232 124.61002 35004 ft 529 kts 47°
2026-05-07 03:09 27.15927 124.67359 35005 ft 529 kts 47°
2026-05-07 03:09 27.20624 124.73730 35008 ft 529 kts 47°
2026-05-07 03:10 27.25318 124.80108 35006 ft 530 kts 47°
2026-05-07 03:10 27.30011 124.86492 35008 ft 530 kts 47°
2026-05-07 03:11 27.34671 124.92841 35008 ft 530 kts 47°
2026-05-07 03:11 27.39366 124.99247 35010 ft 530 kts 47°
2026-05-07 03:12 27.44067 125.05638 35007 ft 530 kts 46°
2026-05-07 03:12 27.48799 125.12002 35009 ft 530 kts 46°
2026-05-07 03:13 27.53433 125.18244 35006 ft 530 kts 46°
2026-05-07 03:13 27.58151 125.24623 34996 ft 530 kts 46°
2026-05-07 03:14 27.62866 125.31014 35009 ft 530 kts 47°
2026-05-07 03:15 27.69939 125.40621 35013 ft 530 kts 47°
2026-05-07 03:15 27.74611 125.46978 35005 ft 530 kts 47°
2026-05-07 03:16 27.79313 125.53385 35006 ft 530 kts 47°
2026-05-07 03:16 27.84019 125.59806 35002 ft 530 kts 47°
2026-05-07 03:17 27.88724 125.66237 35007 ft 530 kts 47°
2026-05-07 03:17 27.93419 125.72662 35001 ft 530 kts 47°
2026-05-07 03:18 27.98113 125.79096 35009 ft 530 kts 47°
2026-05-07 03:18 28.02809 125.85544 35006 ft 531 kts 47°
2026-05-07 03:19 28.07505 125.92000 35004 ft 531 kts 47°
2026-05-07 03:19 28.12199 125.98465 35006 ft 531 kts 47°
2026-05-07 03:20 28.16891 126.04934 35009 ft 531 kts 47°
2026-05-07 03:20 28.21580 126.11411 35009 ft 532 kts 47°
2026-05-07 03:21 28.26264 126.17891 35008 ft 532 kts 47°
2026-05-07 03:21 28.30952 126.24385 35007 ft 532 kts 47°
2026-05-07 03:22 28.35637 126.30886 35009 ft 532 kts 47°
2026-05-07 03:22 28.40323 126.37398 35005 ft 532 kts 47°
2026-05-07 03:23 28.45009 126.43920 35006 ft 533 kts 47°
2026-05-07 03:23 28.49660 126.50404 35006 ft 533 kts 47°
2026-05-07 03:24 28.54342 126.56941 35006 ft 533 kts 47°
2026-05-07 03:24 28.59017 126.63478 35006 ft 533 kts 47°
2026-05-07 03:25 28.63698 126.70035 35009 ft 533 kts 47°
2026-05-07 03:25 28.68378 126.76599 35004 ft 534 kts 47°
2026-05-07 03:26 28.73053 126.83168 34998 ft 534 kts 47°
2026-05-07 03:26 28.77728 126.89746 35002 ft 534 kts 47°
2026-05-07 03:27 28.82402 126.96333 35002 ft 534 kts 47°
2026-05-07 03:27 28.87072 127.02925 35002 ft 534 kts 47°
2026-05-07 03:28 28.91739 127.09523 35000 ft 534 kts 47°
2026-05-07 03:28 28.96405 127.16131 34987 ft 534 kts 47°
2026-05-07 03:29 29.01071 127.22750 34995 ft 534 kts 47°
2026-05-07 03:29 29.05725 127.29362 35012 ft 534 kts 47°
2026-05-07 03:30 29.10376 127.35979 34996 ft 534 kts 47°
2026-05-07 03:30 29.15022 127.42600 35000 ft 533 kts 47°
2026-05-07 03:31 29.19633 127.49182 34999 ft 533 kts 47°
2026-05-07 03:31 29.24265 127.55806 34997 ft 533 kts 47°
2026-05-07 03:32 29.28899 127.62441 34997 ft 533 kts 47°
2026-05-07 03:32 29.33537 127.69094 34997 ft 534 kts 48°
2026-05-07 03:33 29.38163 127.75740 34992 ft 534 kts 48°
2026-05-07 03:33 29.42793 127.82403 34996 ft 534 kts 48°
2026-05-07 03:34 29.47425 127.89081 34994 ft 534 kts 48°
2026-05-07 03:34 29.52055 127.95765 34994 ft 535 kts 48°
2026-05-07 03:35 29.56673 128.02447 34996 ft 535 kts 48°
2026-05-07 03:35 29.61308 128.09147 34995 ft 535 kts 48°
2026-05-07 03:36 29.65933 128.15845 34993 ft 535 kts 48°
2026-05-07 03:36 29.70524 128.22509 34997 ft 534 kts 48°
2026-05-07 03:37 29.75138 128.29217 34990 ft 534 kts 48°
2026-05-07 03:37 29.79746 128.35928 34996 ft 534 kts 48°
2026-05-07 03:38 29.84347 128.42640 34999 ft 534 kts 49°
2026-05-07 03:38 29.88941 128.49354 34987 ft 534 kts 49°
2026-05-07 03:39 29.93540 128.56085 34992 ft 534 kts 49°
2026-05-07 03:39 29.98136 128.62824 34992 ft 534 kts 49°
2026-05-07 03:40 30.02721 128.69557 34993 ft 534 kts 49°
2026-05-07 03:40 30.07305 128.76301 34993 ft 534 kts 49°
2026-05-07 03:41 30.11879 128.83040 34990 ft 534 kts 49°
2026-05-07 03:41 30.16459 128.89800 34993 ft 533 kts 49°
2026-05-07 03:42 30.20996 128.96507 34996 ft 533 kts 49°
2026-05-07 03:42 30.23310 128.99934 35225 ft 531 kts 49°
2026-05-07 03:42 30.25569 129.03290 35569 ft 527 kts 49°
2026-05-07 03:42 30.27818 129.06630 35847 ft 525 kts 49°
2026-05-07 03:43 30.30059 129.09955 36062 ft 524 kts 49°
2026-05-07 03:43 30.32265 129.13227 36255 ft 524 kts 49°
2026-05-07 03:43 30.34509 129.16559 36450 ft 523 kts 49°
2026-05-07 03:43 30.36744 129.19883 36629 ft 523 kts 49°
2026-05-07 03:44 30.38976 129.23205 36825 ft 522 kts 49°
2026-05-07 03:44 30.41203 129.26525 36969 ft 522 kts 49°
2026-05-07 03:44 30.43443 129.29864 36995 ft 525 kts 49°
2026-05-07 03:45 30.47938 129.36576 36992 ft 528 kts 49°
2026-05-07 03:45 30.52442 129.43316 36993 ft 527 kts 50°
2026-05-07 03:46 30.56927 129.50037 36989 ft 527 kts 50°
2026-05-07 03:46 30.61407 129.56764 36988 ft 527 kts 50°
2026-05-07 03:47 30.65893 129.63510 36990 ft 527 kts 50°
2026-05-07 03:47 30.70375 129.70260 36997 ft 528 kts 50°
2026-05-07 03:48 30.74849 129.77011 37000 ft 527 kts 50°
2026-05-07 03:48 30.79291 129.83725 36995 ft 527 kts 50°
2026-05-07 03:49 30.83741 129.90495 36989 ft 527 kts 52°
2026-05-07 03:49 30.87749 129.97677 36988 ft 528 kts 56°
2026-05-07 03:50 30.90996 130.03762 36994 ft 528 kts 56°
2026-05-07 03:50 30.94826 130.11009 36991 ft 528 kts 56°
2026-05-07 03:51 30.98673 130.18287 36993 ft 528 kts 56°
2026-05-07 03:51 31.02527 130.25576 36994 ft 527 kts 56°
2026-05-07 03:52 31.06375 130.32861 36993 ft 527 kts 56°
2026-05-07 03:52 31.10212 130.40139 37001 ft 527 kts 56°
2026-05-07 03:53 31.14044 130.47423 36992 ft 526 kts 57°
2026-05-07 03:53 31.17873 130.54714 37008 ft 526 kts 57°
2026-05-07 03:54 31.21693 130.62004 37001 ft 525 kts 57°
2026-05-07 03:54 31.25478 130.69240 36998 ft 525 kts 57°
2026-05-07 03:55 31.29308 130.76572 36994 ft 525 kts 57°
2026-05-07 03:55 31.33082 130.83813 36994 ft 524 kts 57°
2026-05-07 03:56 31.36875 130.91103 36995 ft 524 kts 57°
2026-05-07 03:56 31.40654 130.98382 36993 ft 524 kts 57°
2026-05-07 03:57 31.44436 131.05680 37002 ft 524 kts 57°
2026-05-07 03:57 31.48210 131.12976 36995 ft 524 kts 57°
2026-05-07 03:58 31.51986 131.20287 36996 ft 524 kts 57°
2026-05-07 03:58 31.55746 131.27583 36999 ft 524 kts 57°
2026-05-07 03:59 31.59522 131.34927 36998 ft 524 kts 57°
2026-05-07 03:59 31.63284 131.42259 36997 ft 525 kts 57°
2026-05-07 04:00 31.67043 131.49603 36998 ft 525 kts 57°
2026-05-07 04:00 31.70805 131.56968 36994 ft 525 kts 57°
2026-05-07 04:01 31.74557 131.64325 36996 ft 525 kts 57°
2026-05-07 04:01 31.78305 131.71691 36998 ft 525 kts 57°
2026-05-07 04:02 31.82050 131.79064 36999 ft 525 kts 57°
2026-05-07 04:02 31.85785 131.86433 36994 ft 525 kts 58°
2026-05-07 04:03 31.89499 131.93775 36989 ft 525 kts 58°
2026-05-07 04:03 31.93231 132.01164 36991 ft 525 kts 58°
2026-05-07 04:04 31.96963 132.08570 36996 ft 525 kts 58°
2026-05-07 04:04 32.00681 132.15962 36993 ft 525 kts 58°
2026-05-07 04:05 32.04396 132.23364 36993 ft 525 kts 58°
2026-05-07 04:05 32.08114 132.30787 36994 ft 525 kts 58°
2026-05-07 04:06 32.11825 132.38209 37001 ft 525 kts 58°
2026-05-07 04:06 32.15562 132.45535 36995 ft 524 kts 56°
2026-05-07 04:07 32.19467 132.52866 36994 ft 524 kts 56°
2026-05-07 04:07 32.23345 132.60155 36997 ft 524 kts 56°
2026-05-07 04:08 32.27194 132.67457 36996 ft 523 kts 57°
2026-05-07 04:08 32.31003 132.74723 36996 ft 523 kts 57°
2026-05-07 04:09 32.34825 132.82033 36997 ft 523 kts 57°
2026-05-07 04:09 32.38642 132.89345 36999 ft 522 kts 57°
2026-05-07 04:10 32.42447 132.96646 36994 ft 521 kts 57°
2026-05-07 04:10 32.46252 133.03960 36999 ft 521 kts 57°
2026-05-07 04:11 32.50046 133.11269 36998 ft 520 kts 57°
2026-05-07 04:11 32.53828 133.18570 36998 ft 520 kts 57°
2026-05-07 04:12 32.57606 133.25875 36998 ft 519 kts 57°
2026-05-07 04:12 32.61374 133.33175 37001 ft 519 kts 57°
2026-05-07 04:13 32.65136 133.40479 37000 ft 519 kts 57°
2026-05-07 04:13 32.68856 133.47819 36999 ft 518 kts 58°
2026-05-07 04:14 32.72510 133.55180 36996 ft 518 kts 58°
2026-05-07 04:14 32.76169 133.62559 36988 ft 517 kts 58°
2026-05-07 04:15 32.79823 133.69917 36998 ft 517 kts 58°
2026-05-07 04:15 32.83450 133.77232 36990 ft 517 kts 58°
2026-05-07 04:16 32.87102 133.84605 36997 ft 517 kts 58°
2026-05-07 04:16 32.90744 133.91966 37001 ft 516 kts 58°
2026-05-07 04:17 32.94387 133.99347 36988 ft 516 kts 58°
2026-05-07 04:17 32.98016 134.06718 37007 ft 516 kts 58°
2026-05-07 04:18 33.01637 134.14090 37010 ft 515 kts 58°
2026-05-07 04:18 33.05210 134.21487 36990 ft 516 kts 62°
2026-05-07 04:19 33.07737 134.29490 37011 ft 516 kts 71°
2026-05-07 04:19 33.09804 134.37703 36992 ft 517 kts 73°
2026-05-07 04:20 33.11797 134.45922 37004 ft 516 kts 73°
2026-05-07 04:20 33.13783 134.54089 37000 ft 515 kts 73°
2026-05-07 04:21 33.16793 134.66396 37003 ft 515 kts 73°
2026-05-07 04:21 33.18794 134.74594 37004 ft 514 kts 73°
2026-05-07 04:22 33.20787 134.82786 37002 ft 513 kts 73°
2026-05-07 04:22 33.22771 134.90969 37003 ft 513 kts 73°
2026-05-07 04:23 33.24748 134.99154 37007 ft 512 kts 73°
2026-05-07 04:23 33.26785 135.07274 37007 ft 509 kts 71°
2026-05-07 04:24 33.28936 135.15344 37005 ft 508 kts 71°
2026-05-07 04:24 33.31069 135.23393 37008 ft 508 kts 72°
2026-05-07 04:25 33.33146 135.31342 37006 ft 508 kts 72°
2026-05-07 04:25 33.35239 135.39419 37006 ft 509 kts 72°
2026-05-07 04:26 33.37316 135.47509 37006 ft 509 kts 73°
2026-05-07 04:26 33.39251 135.55666 37003 ft 510 kts 74°
2026-05-07 04:27 33.41142 135.63857 37006 ft 510 kts 74°
2026-05-07 04:27 33.43048 135.72046 37008 ft 511 kts 74°
2026-05-07 04:28 33.44958 135.80202 37003 ft 512 kts 75°
2026-05-07 04:28 33.46694 135.88479 37008 ft 513 kts 78°
2026-05-07 04:29 33.48262 135.96826 37006 ft 514 kts 78°
2026-05-07 04:29 33.49851 136.05196 37009 ft 515 kts 78°
2026-05-07 04:30 33.51473 136.13580 37007 ft 517 kts 78°
2026-05-07 04:30 33.53106 136.21976 37009 ft 518 kts 78°
2026-05-07 04:31 33.54728 136.30343 37006 ft 519 kts 78°
2026-05-07 04:31 33.56354 136.38774 37005 ft 520 kts 78°
2026-05-07 04:32 33.57976 136.47225 37003 ft 521 kts 79°
2026-05-07 04:32 33.59597 136.55703 37001 ft 522 kts 79°
2026-05-07 04:33 33.61214 136.64195 37006 ft 523 kts 79°
2026-05-07 04:33 33.62829 136.72708 36999 ft 524 kts 79°
2026-05-07 04:34 33.64449 136.81266 37013 ft 526 kts 79°
2026-05-07 04:34 33.66059 136.89827 37004 ft 527 kts 79°
2026-05-07 04:35 33.67394 136.96961 37014 ft 527 kts 79°
2026-05-07 04:35 33.68998 137.05560 37000 ft 528 kts 80°
2026-05-07 04:36 33.70127 137.14251 37011 ft 525 kts 89°
2026-05-07 04:36 33.70489 137.23021 37001 ft 526 kts 91°
2026-05-07 04:37 33.70734 137.31800 37009 ft 526 kts 91°
2026-05-07 04:37 33.70970 137.40590 37005 ft 527 kts 92°
2026-05-07 04:38 33.71216 137.49398 37002 ft 528 kts 92°
2026-05-07 04:38 33.71462 137.58161 37000 ft 529 kts 92°
2026-05-07 04:39 33.71705 137.66992 37002 ft 530 kts 92°
2026-05-07 04:39 33.71941 137.75841 37001 ft 530 kts 92°
2026-05-07 04:40 33.72171 137.84707 37000 ft 531 kts 92°
2026-05-07 04:40 33.72394 137.93578 37001 ft 532 kts 92°
2026-05-07 04:41 33.72611 138.02465 37002 ft 533 kts 92°
2026-05-07 04:41 33.72818 138.11176 37002 ft 533 kts 92°
2026-05-07 04:42 33.73023 138.20049 36997 ft 534 kts 92°
2026-05-07 04:42 33.73223 138.29018 36995 ft 534 kts 92°
2026-05-07 04:43 33.73415 138.37878 36999 ft 534 kts 92°
2026-05-07 04:43 33.73818 138.46810 36998 ft 539 kts 84°
2026-05-07 04:44 33.74653 138.51061 36999 ft 542 kts 73°
2026-05-07 04:44 33.76108 138.55169 37000 ft 544 kts 62°
2026-05-07 04:44 33.79836 138.62916 36999 ft 546 kts 59°
2026-05-07 04:45 33.83833 138.70687 36995 ft 547 kts 59°
2026-05-07 04:45 33.87821 138.78471 36998 ft 547 kts 59°
2026-05-07 04:46 33.91780 138.86303 36998 ft 547 kts 59°
2026-05-07 04:46 33.95696 138.94102 36995 ft 548 kts 59°
2026-05-07 04:47 33.99627 139.01955 36994 ft 548 kts 59°
2026-05-07 04:47 34.03560 139.09824 36993 ft 548 kts 59°
2026-05-07 04:48 34.07498 139.17718 36995 ft 549 kts 59°
2026-05-07 04:48 34.11427 139.25611 36993 ft 549 kts 59°
2026-05-07 04:49 34.15355 139.33530 36987 ft 549 kts 59°
2026-05-07 04:49 34.19278 139.41440 36994 ft 549 kts 59°
2026-05-07 04:50 34.23197 139.49359 36993 ft 550 kts 59°
2026-05-07 04:50 34.27093 139.57250 36998 ft 550 kts 59°
2026-05-07 04:51 34.31003 139.65191 36988 ft 550 kts 59°
2026-05-07 04:51 34.34911 139.73144 36989 ft 551 kts 59°
2026-05-07 04:52 34.38823 139.81123 36992 ft 551 kts 59°
2026-05-07 04:52 34.42736 139.89123 36987 ft 552 kts 59°
2026-05-07 04:53 34.46644 139.97132 36981 ft 552 kts 59°
2026-05-07 04:53 34.50551 140.05157 36975 ft 553 kts 59°
2026-05-07 04:54 34.54429 140.13141 36978 ft 553 kts 59°
2026-05-07 04:54 34.58357 140.21244 36975 ft 553 kts 59°
2026-05-07 04:55 34.62223 140.29239 36970 ft 553 kts 59°
2026-05-07 04:55 34.66112 140.37300 36972 ft 553 kts 59°
2026-05-07 04:56 34.69996 140.45368 36971 ft 553 kts 59°
2026-05-07 04:56 34.73799 140.53498 36966 ft 553 kts 60°
2026-05-07 04:57 34.77436 140.61483 36968 ft 553 kts 60°
2026-05-07 04:57 34.81163 140.69663 36969 ft 553 kts 60°
2026-05-07 04:58 34.84901 140.77841 36964 ft 552 kts 60°
2026-05-07 04:58 34.88640 140.86025 36964 ft 552 kts 60°
2026-05-07 04:59 34.92367 140.94203 36965 ft 552 kts 60°
2026-05-07 04:59 34.96067 141.02341 36963 ft 552 kts 60°
2026-05-07 05:00 34.99788 141.10546 36968 ft 552 kts 60°
2026-05-07 05:00 35.03497 141.18743 36967 ft 552 kts 60°
2026-05-07 05:01 35.07208 141.26967 36966 ft 553 kts 60°
2026-05-07 05:01 35.10912 141.35193 36985 ft 553 kts 60°
2026-05-07 05:02 35.14610 141.43425 36985 ft 553 kts 60°
2026-05-07 05:02 35.18308 141.51678 36990 ft 554 kts 60°
2026-05-07 05:03 35.22007 141.59953 36972 ft 555 kts 60°
2026-05-07 05:03 35.25703 141.68242 36976 ft 555 kts 60°
2026-05-07 05:04 35.29397 141.76548 37001 ft 556 kts 60°
2026-05-07 05:04 35.33065 141.84814 36984 ft 556 kts 60°
2026-05-07 05:05 35.36751 141.93140 36999 ft 557 kts 60°
2026-05-07 05:05 35.40439 142.01493 36981 ft 557 kts 60°
2026-05-07 05:06 35.44122 142.09855 37006 ft 557 kts 60°
2026-05-07 05:06 35.47795 142.18213 36994 ft 557 kts 60°
2026-05-07 05:07 35.51462 142.26582 36998 ft 557 kts 60°
2026-05-07 05:07 35.55133 142.34978 36999 ft 557 kts 60°
2026-05-07 05:08 35.58792 142.43369 36998 ft 557 kts 60°
2026-05-07 05:08 35.62444 142.51763 37000 ft 557 kts 60°
2026-05-07 05:09 35.66086 142.60158 36999 ft 556 kts 60°
2026-05-07 05:09 35.69721 142.68556 37000 ft 556 kts 60°
2026-05-07 05:10 35.73345 142.76949 37004 ft 555 kts 60°
2026-05-07 05:10 35.76940 142.85297 37002 ft 555 kts 60°
2026-05-07 05:11 35.80568 142.93741 37004 ft 554 kts 60°
2026-05-07 05:11 35.84147 143.02094 37002 ft 553 kts 60°
2026-05-07 05:12 35.87728 143.10473 37002 ft 553 kts 60°
2026-05-07 05:12 35.91220 143.18716 36999 ft 553 kts 63°
2026-05-07 05:13 35.93474 143.27762 37006 ft 553 kts 81°
2026-05-07 05:13 35.94574 143.37163 37004 ft 554 kts 84°
2026-05-07 05:14 35.95495 143.46602 37008 ft 554 kts 84°
2026-05-07 05:14 35.96421 143.56054 37008 ft 555 kts 84°
2026-05-07 05:15 35.97363 143.65445 37011 ft 555 kts 84°
2026-05-07 05:15 35.98313 143.74910 37013 ft 556 kts 84°
2026-05-07 05:16 35.99260 143.84388 37014 ft 556 kts 84°
2026-05-07 05:16 36.00198 143.93868 37015 ft 556 kts 84°
2026-05-07 05:17 36.01274 144.03327 37016 ft 556 kts 76°
2026-05-07 05:17 36.02432 144.07883 37013 ft 554 kts 65°
2026-05-07 05:17 36.04206 144.12088 37014 ft 550 kts 53°
2026-05-07 05:18 36.09073 144.19286 37017 ft 545 kts 43°
2026-05-07 05:18 36.14301 144.26056 37017 ft 544 kts 42°
2026-05-07 05:19 36.19523 144.32763 37017 ft 544 kts 42°
2026-05-07 05:19 36.24731 144.39539 37017 ft 543 kts 43°
2026-05-07 05:20 36.29916 144.46344 37019 ft 542 kts 43°
2026-05-07 05:20 36.35077 144.53139 37018 ft 541 kts 43°
2026-05-07 05:21 36.42799 144.63329 37017 ft 539 kts 43°
2026-05-07 05:22 36.47925 144.70109 37020 ft 538 kts 43°
2026-05-07 05:22 36.53043 144.76890 37017 ft 537 kts 43°
2026-05-07 05:23 36.58153 144.83677 37019 ft 536 kts 43°
2026-05-07 05:23 36.63241 144.90448 37018 ft 535 kts 44°
2026-05-07 05:24 36.68324 144.97227 37020 ft 534 kts 44°
2026-05-07 05:24 36.73387 145.03992 37020 ft 533 kts 44°
2026-05-07 05:25 36.78411 145.10721 37019 ft 532 kts 44°
2026-05-07 05:25 36.83450 145.17483 37018 ft 532 kts 44°
2026-05-07 05:26 36.88481 145.24248 37023 ft 531 kts 44°
2026-05-07 05:26 36.92667 145.29887 37021 ft 531 kts 44°
2026-05-07 05:27 36.97689 145.36666 37021 ft 531 kts 44°
2026-05-07 05:27 37.02709 145.43457 37025 ft 531 kts 44°
2026-05-07 05:28 37.07727 145.50258 37023 ft 532 kts 44°
2026-05-07 05:28 37.12741 145.57069 37030 ft 532 kts 44°
2026-05-07 05:29 37.17750 145.63890 37030 ft 532 kts 44°
2026-05-07 05:29 37.22154 145.71399 37034 ft 535 kts 54°
2026-05-07 05:30 37.26123 145.79242 37030 ft 536 kts 56°
2026-05-07 05:30 37.30061 145.87203 37033 ft 536 kts 56°
2026-05-07 05:31 37.33998 145.95165 37034 ft 536 kts 56°
2026-05-07 05:31 37.37943 146.03128 37040 ft 537 kts 56°
2026-05-07 05:32 37.41891 146.11103 37038 ft 537 kts 56°
2026-05-07 05:32 37.45832 146.19084 37050 ft 537 kts 56°
2026-05-07 05:33 37.49770 146.27078 37050 ft 537 kts 56°
2026-05-07 05:33 37.53705 146.35086 37055 ft 538 kts 56°
2026-05-07 05:34 37.57615 146.43065 37057 ft 538 kts 56°
2026-05-07 05:34 37.61542 146.51095 37044 ft 538 kts 56°
2026-05-07 05:35 37.65463 146.59135 37064 ft 538 kts 56°
2026-05-07 05:35 37.69381 146.67187 37050 ft 538 kts 56°
2026-05-07 05:36 37.73302 146.75266 37056 ft 539 kts 56°
2026-05-07 05:36 37.77211 146.83339 37062 ft 539 kts 56°
2026-05-07 05:37 37.81117 146.91426 37063 ft 539 kts 56°
2026-05-07 05:37 37.85026 146.99539 37063 ft 540 kts 56°
2026-05-07 05:38 37.88926 147.07654 37065 ft 540 kts 56°
2026-05-07 05:38 37.92829 147.15796 37064 ft 540 kts 56°
2026-05-07 05:39 37.96699 147.23888 37069 ft 541 kts 56°
2026-05-07 05:39 38.00615 147.32097 37070 ft 541 kts 56°
2026-05-07 05:40 38.04477 147.40215 37071 ft 541 kts 56°
2026-05-07 05:40 38.08361 147.48398 37071 ft 541 kts 56°
2026-05-07 05:41 38.12246 147.56603 37073 ft 541 kts 56°
2026-05-07 05:41 38.16122 147.64812 37072 ft 542 kts 56°
2026-05-07 05:42 38.19995 147.73033 37076 ft 542 kts 56°
2026-05-07 05:42 38.23860 147.81260 37078 ft 542 kts 56°
2026-05-07 05:43 38.27722 147.89501 37081 ft 542 kts 56°
2026-05-07 05:43 38.31577 147.97748 37081 ft 542 kts 56°
2026-05-07 05:44 38.35409 148.05967 37084 ft 543 kts 56°
2026-05-07 05:44 38.39260 148.14248 37077 ft 543 kts 56°
2026-05-07 05:45 38.43103 148.22534 37083 ft 543 kts 56°
2026-05-07 05:45 38.46948 148.30846 37086 ft 544 kts 56°
2026-05-07 05:46 38.50788 148.39168 37084 ft 544 kts 56°
2026-05-07 05:46 38.54624 148.47502 37087 ft 544 kts 56°
2026-05-07 05:47 38.58451 148.55839 37088 ft 544 kts 56°
2026-05-07 05:47 38.62272 148.64185 37088 ft 544 kts 56°
2026-05-07 05:48 38.66088 148.72540 37085 ft 544 kts 56°
2026-05-07 05:48 38.69900 148.80911 37089 ft 544 kts 56°
2026-05-07 05:49 38.73682 148.89235 37091 ft 544 kts 56°
2026-05-07 05:49 38.77487 148.97635 37090 ft 544 kts 56°
2026-05-07 05:50 38.81280 149.06027 37094 ft 544 kts 56°
2026-05-07 05:50 38.85077 149.14452 37091 ft 544 kts 56°
2026-05-07 05:51 38.88861 149.22871 37087 ft 544 kts 56°
2026-05-07 05:51 38.92642 149.31305 37094 ft 545 kts 56°
2026-05-07 05:52 38.96415 149.39744 37084 ft 545 kts 56°
2026-05-07 05:52 39.00180 149.48189 37086 ft 545 kts 56°
2026-05-07 05:53 39.03948 149.56663 37087 ft 545 kts 56°
2026-05-07 05:53 39.07701 149.65124 37087 ft 545 kts 56°
2026-05-07 05:54 39.11429 149.73553 37093 ft 545 kts 56°
2026-05-07 05:54 39.15176 149.82047 37094 ft 545 kts 56°
2026-05-07 05:55 39.18935 149.90538 37092 ft 545 kts 56°
2026-05-07 05:55 39.22714 149.99015 37095 ft 545 kts 56°
2026-05-07 05:56 39.26490 150.07512 37093 ft 546 kts 56°
2026-05-07 05:56 39.30255 150.16023 37096 ft 546 kts 56°
2026-05-07 05:57 39.34017 150.24555 37092 ft 546 kts 56°
2026-05-07 05:57 39.37745 150.33037 37099 ft 546 kts 56°
2026-05-07 05:58 39.41491 150.41580 37099 ft 546 kts 56°
2026-05-07 05:58 39.45230 150.50131 37099 ft 546 kts 56°
2026-05-07 05:59 39.48971 150.58710 37101 ft 546 kts 56°
2026-05-07 05:59 39.52697 150.67277 37100 ft 546 kts 56°
2026-05-07 06:00 39.56417 150.75855 37103 ft 546 kts 56°
2026-05-07 06:00 39.60137 150.84457 37102 ft 546 kts 56°
2026-05-07 06:01 39.63845 150.93056 37103 ft 546 kts 56°
2026-05-07 06:01 39.67551 151.01674 37104 ft 546 kts 56°
2026-05-07 06:02 39.71250 151.10298 37103 ft 546 kts 56°
2026-05-07 06:02 39.74938 151.18921 37105 ft 546 kts 56°
2026-05-07 06:03 39.78621 151.27558 37109 ft 547 kts 56°
2026-05-07 06:03 39.82304 151.36218 37106 ft 547 kts 56°
2026-05-07 06:04 39.85953 151.44823 37105 ft 547 kts 56°
2026-05-07 06:04 39.89620 151.53494 37108 ft 547 kts 56°
2026-05-07 06:05 39.93283 151.62180 37109 ft 547 kts 55°
2026-05-07 06:05 39.96939 151.70875 37112 ft 547 kts 55°
2026-05-07 06:06 40.00596 151.79596 37112 ft 547 kts 55°
2026-05-07 06:06 40.04241 151.88315 37114 ft 547 kts 55°
2026-05-07 06:07 40.07881 151.97045 37115 ft 547 kts 55°
2026-05-07 06:07 40.11514 152.05783 37123 ft 547 kts 55°
2026-05-07 06:08 40.15139 152.14530 37111 ft 547 kts 55°
2026-05-07 06:08 40.18757 152.23283 37110 ft 547 kts 55°
2026-05-07 06:09 40.22371 152.32051 37114 ft 547 kts 55°
2026-05-07 06:09 40.25979 152.40832 37112 ft 547 kts 55°
2026-05-07 06:10 40.29578 152.49614 37110 ft 547 kts 56°
2026-05-07 06:10 40.33174 152.58416 37110 ft 547 kts 56°
2026-05-07 06:11 40.36150 152.65722 37113 ft 547 kts 56°
2026-05-07 06:11 40.40337 152.76028 37115 ft 547 kts 56°
2026-05-07 06:12 40.43882 152.84781 37112 ft 547 kts 56°
2026-05-07 06:12 40.47451 152.93620 37112 ft 547 kts 56°
2026-05-07 06:13 40.50430 153.01018 37110 ft 547 kts 56°
2026-05-07 06:13 40.53983 153.09865 37111 ft 547 kts 56°
2026-05-07 06:14 40.57503 153.18657 37113 ft 547 kts 56°
2026-05-07 06:14 40.61039 153.27512 37119 ft 547 kts 56°
2026-05-07 06:15 40.64566 153.36374 37110 ft 546 kts 56°
2026-05-07 06:15 40.68087 153.45245 37107 ft 546 kts 56°
2026-05-07 06:16 40.71599 153.54121 37102 ft 546 kts 56°
2026-05-07 06:16 40.75107 153.63011 37114 ft 546 kts 56°
2026-05-07 06:17 40.78604 153.71901 37114 ft 546 kts 56°
2026-05-07 06:17 40.82094 153.80803 37113 ft 546 kts 56°
2026-05-07 06:18 40.85579 153.89720 37113 ft 545 kts 56°
2026-05-07 06:18 40.89051 153.98628 37115 ft 545 kts 56°
2026-05-07 06:19 40.92513 154.07539 37114 ft 545 kts 56°
2026-05-07 06:19 40.95972 154.16466 37115 ft 545 kts 56°
2026-05-07 06:20 40.99395 154.25330 37116 ft 544 kts 56°
2026-05-07 06:20 41.02836 154.34264 37117 ft 544 kts 56°
2026-05-07 06:21 41.06266 154.43200 37118 ft 544 kts 56°
2026-05-07 06:21 41.09691 154.52146 37115 ft 544 kts 56°
2026-05-07 06:22 41.13102 154.61088 37118 ft 543 kts 56°
2026-05-07 06:22 41.18207 154.74517 37118 ft 543 kts 56°
2026-05-07 06:23 41.21598 154.83474 37121 ft 543 kts 57°
2026-05-07 06:23 41.24981 154.92436 37120 ft 543 kts 57°
2026-05-07 06:24 41.28355 155.01402 37118 ft 543 kts 57°
2026-05-07 06:24 41.31726 155.10387 37122 ft 543 kts 57°
2026-05-07 06:25 41.35089 155.19380 37121 ft 542 kts 57°
2026-05-07 06:25 41.38442 155.28373 37124 ft 542 kts 57°
2026-05-07 06:26 41.41765 155.37317 37117 ft 542 kts 57°
2026-05-07 06:26 41.45107 155.46335 37122 ft 542 kts 57°
2026-05-07 06:27 41.48437 155.55352 37118 ft 542 kts 57°
2026-05-07 06:27 41.51763 155.64386 37116 ft 542 kts 57°
2026-05-07 06:28 41.55075 155.73411 37122 ft 541 kts 57°
2026-05-07 06:28 41.58379 155.82441 37125 ft 541 kts 57°
2026-05-07 06:29 41.61677 155.91486 37109 ft 541 kts 57°
2026-05-07 06:29 41.64964 156.00527 37122 ft 541 kts 57°
2026-05-07 06:30 41.68245 156.09579 37119 ft 541 kts 57°
2026-05-07 06:30 41.71517 156.18638 37127 ft 540 kts 57°
2026-05-07 06:31 41.74760 156.27642 37123 ft 540 kts 57°
2026-05-07 06:31 41.78016 156.36715 37123 ft 540 kts 58°
2026-05-07 06:32 41.81267 156.45799 37127 ft 540 kts 58°
2026-05-07 06:32 41.84504 156.54878 37126 ft 540 kts 58°
2026-05-07 06:33 41.87739 156.63978 37123 ft 540 kts 58°
2026-05-07 06:33 41.90898 156.72892 37124 ft 540 kts 58°
2026-05-07 06:34 41.94115 156.82000 37126 ft 540 kts 58°
2026-05-07 06:34 41.97299 156.91044 37131 ft 540 kts 58°
2026-05-07 06:35 42.00503 157.00173 37129 ft 540 kts 58°
2026-05-07 06:35 42.03697 157.09305 37130 ft 540 kts 58°
2026-05-07 06:36 42.06885 157.18446 37127 ft 539 kts 58°
2026-05-07 06:36 42.10061 157.27589 37126 ft 539 kts 58°
2026-05-07 06:37 42.13232 157.36742 37135 ft 539 kts 58°
2026-05-07 06:37 42.16399 157.45917 37122 ft 539 kts 58°
2026-05-07 06:38 42.19556 157.55092 37128 ft 539 kts 58°
2026-05-07 06:38 42.22704 157.64271 37130 ft 539 kts 58°
2026-05-07 06:39 42.25825 157.73401 37132 ft 539 kts 58°
2026-05-07 06:39 42.28958 157.82600 37132 ft 539 kts 58°
2026-05-07 06:40 42.32080 157.91793 37130 ft 538 kts 59°
2026-05-07 06:40 42.35193 158.00993 37126 ft 538 kts 59°
2026-05-07 06:41 42.38300 158.10205 37132 ft 538 kts 59°
2026-05-07 06:41 42.41398 158.19421 37133 ft 538 kts 59°
2026-05-07 06:42 42.44494 158.28663 37128 ft 538 kts 59°
2026-05-07 06:42 42.47579 158.37902 37133 ft 538 kts 59°
2026-05-07 06:43 42.50653 158.47143 37132 ft 538 kts 59°
2026-05-07 06:43 42.53722 158.56395 37132 ft 538 kts 59°
2026-05-07 06:44 42.56759 158.65586 37133 ft 538 kts 59°
2026-05-07 06:44 42.59812 158.74855 37132 ft 537 kts 59°
2026-05-07 06:45 42.62854 158.84125 37135 ft 537 kts 59°
2026-05-07 06:45 42.65888 158.93399 37131 ft 537 kts 59°
2026-05-07 06:46 42.68914 159.02682 37130 ft 537 kts 59°
2026-05-07 06:46 42.71930 159.11964 37130 ft 537 kts 59°
2026-05-07 06:47 42.74936 159.21250 37130 ft 537 kts 59°
2026-05-07 06:47 42.77941 159.30566 37129 ft 536 kts 59°
2026-05-07 06:48 42.80910 159.39802 37129 ft 536 kts 59°
2026-05-07 06:48 42.83912 159.49173 37132 ft 536 kts 59°
2026-05-07 06:49 42.86867 159.58429 37130 ft 536 kts 59°
2026-05-07 06:49 42.89834 159.67755 37129 ft 536 kts 59°
2026-05-07 06:50 42.92795 159.77096 37131 ft 536 kts 59°
2026-05-07 06:50 42.95763 159.86490 37131 ft 536 kts 59°
2026-05-07 06:51 42.98685 159.95772 37213 ft 535 kts 59°
2026-05-07 06:51 43.00149 160.00437 37491 ft 533 kts 59°
2026-05-07 06:51 43.01529 160.05147 37742 ft 535 kts 63°
2026-05-07 06:52 43.02758 160.09961 37949 ft 537 kts 65°
2026-05-07 06:52 43.03914 160.14816 38144 ft 538 kts 65°
2026-05-07 06:52 43.05057 160.19688 38337 ft 538 kts 65°
2026-05-07 06:52 43.06210 160.24559 38515 ft 537 kts 65°
2026-05-07 06:53 43.07379 160.29415 38691 ft 537 kts 64°
2026-05-07 06:53 43.08561 160.34260 38849 ft 537 kts 64°
2026-05-07 06:53 43.09751 160.39093 38987 ft 536 kts 64°
2026-05-07 06:53 43.10945 160.43930 39104 ft 537 kts 64°
2026-05-07 06:54 43.13351 160.53663 39130 ft 541 kts 64°
2026-05-07 06:54 43.15747 160.63423 39135 ft 540 kts 64°
2026-05-07 06:55 43.18129 160.73184 39128 ft 540 kts 64°
2026-05-07 06:55 43.20507 160.82965 39132 ft 540 kts 65°
2026-05-07 06:56 43.22871 160.92730 39129 ft 540 kts 65°
2026-05-07 06:56 43.25232 161.02526 39131 ft 540 kts 65°
2026-05-07 06:57 43.27582 161.12314 39130 ft 540 kts 65°
2026-05-07 06:57 43.29909 161.22054 39132 ft 540 kts 65°
2026-05-07 06:58 43.32241 161.31852 39130 ft 540 kts 65°
2026-05-07 06:58 43.34561 161.41646 39131 ft 539 kts 65°
2026-05-07 06:59 43.36877 161.51465 39131 ft 539 kts 65°
2026-05-07 06:59 43.39181 161.61274 39132 ft 539 kts 65°
2026-05-07 07:00 43.41089 161.69431 39132 ft 539 kts 65°
2026-05-07 07:00 43.43763 161.80904 39131 ft 539 kts 65°
2026-05-07 07:01 43.46029 161.90681 39131 ft 539 kts 65°
2026-05-07 07:01 43.47932 161.98922 39132 ft 539 kts 65°
2026-05-07 07:02 43.50179 162.08701 39132 ft 539 kts 65°
2026-05-07 07:02 43.52431 162.18541 39131 ft 539 kts 65°
2026-05-07 07:03 43.54674 162.28388 39134 ft 538 kts 65°
2026-05-07 07:03 43.56907 162.38237 39133 ft 538 kts 65°
2026-05-07 07:04 43.59132 162.48094 39130 ft 538 kts 65°
2026-05-07 07:04 43.61348 162.57956 39122 ft 538 kts 65°
2026-05-07 07:05 43.63553 162.67812 39133 ft 538 kts 65°
2026-05-07 07:05 43.65752 162.77687 39137 ft 537 kts 65°
2026-05-07 07:06 43.67941 162.87558 39127 ft 537 kts 66°
2026-05-07 07:06 43.70105 162.97369 39130 ft 536 kts 66°
2026-05-07 07:07 43.72275 163.07246 39130 ft 536 kts 66°
2026-05-07 07:07 43.74432 163.17114 39129 ft 536 kts 66°
2026-05-07 07:08 43.76576 163.26964 39126 ft 535 kts 66°
2026-05-07 07:08 43.78712 163.36826 39128 ft 535 kts 66°
2026-05-07 07:09 43.80838 163.46690 39125 ft 534 kts 66°
2026-05-07 07:09 43.82956 163.56562 39125 ft 534 kts 66°
2026-05-07 07:10 43.85059 163.66408 39122 ft 534 kts 66°
2026-05-07 07:10 43.87143 163.76213 39126 ft 534 kts 66°
2026-05-07 07:11 43.89234 163.86095 39126 ft 533 kts 66°
2026-05-07 07:11 43.91313 163.95973 39122 ft 533 kts 66°
2026-05-07 07:12 43.93382 164.05847 39123 ft 533 kts 66°
2026-05-07 07:12 43.95441 164.15724 39118 ft 533 kts 67°
2026-05-07 07:13 43.97495 164.25619 39125 ft 533 kts 67°
2026-05-07 07:13 43.99534 164.35495 39120 ft 533 kts 67°
2026-05-07 07:14 44.01568 164.45392 39122 ft 532 kts 67°
2026-05-07 07:14 44.03580 164.55232 39121 ft 532 kts 67°
2026-05-07 07:15 44.05596 164.65138 39117 ft 532 kts 67°
2026-05-07 07:15 44.07604 164.75052 39120 ft 532 kts 67°
2026-05-07 07:16 44.09602 164.84969 39116 ft 532 kts 67°
2026-05-07 07:16 44.11591 164.94888 39118 ft 532 kts 68°
2026-05-07 07:17 44.13573 165.04822 39116 ft 532 kts 68°
2026-05-07 07:17 44.15545 165.14760 39112 ft 532 kts 68°
2026-05-07 07:18 44.17512 165.24717 39113 ft 532 kts 68°
2026-05-07 07:18 44.19455 165.34606 39109 ft 532 kts 68°
2026-05-07 07:19 44.21399 165.44552 39112 ft 532 kts 68°
2026-05-07 07:19 44.23340 165.54528 39114 ft 532 kts 68°
2026-05-07 07:20 44.25270 165.64503 39097 ft 533 kts 68°
2026-05-07 07:20 44.27192 165.74489 39105 ft 533 kts 68°
2026-05-07 07:21 44.29107 165.84484 39105 ft 533 kts 68°
2026-05-07 07:21 44.31015 165.94499 39107 ft 533 kts 68°
2026-05-07 07:22 44.32912 166.04509 39105 ft 533 kts 69°
2026-05-07 07:22 44.34804 166.14548 39108 ft 534 kts 69°
2026-05-07 07:23 44.36673 166.24510 39103 ft 534 kts 69°
2026-05-07 07:23 44.38547 166.34559 39105 ft 534 kts 69°
2026-05-07 07:24 44.40414 166.44622 39101 ft 534 kts 69°
2026-05-07 07:24 44.42270 166.54680 39102 ft 534 kts 69°
2026-05-07 07:25 44.45044 166.69812 39097 ft 535 kts 69°
2026-05-07 07:26 44.46881 166.79902 39097 ft 535 kts 69°
2026-05-07 07:26 44.48698 166.89941 39097 ft 535 kts 69°
2026-05-07 07:27 44.50519 167.00051 39100 ft 535 kts 69°
2026-05-07 07:27 44.52330 167.10165 39097 ft 535 kts 69°
2026-05-07 07:28 44.54135 167.20298 39097 ft 535 kts 69°
2026-05-07 07:28 44.55931 167.30442 39089 ft 536 kts 70°
2026-05-07 07:29 44.57719 167.40594 39096 ft 536 kts 70°
2026-05-07 07:29 44.59497 167.50750 39097 ft 536 kts 70°
2026-05-07 07:30 44.61270 167.60934 39090 ft 536 kts 70°
2026-05-07 07:30 44.63019 167.71039 39090 ft 537 kts 70°
2026-05-07 07:31 44.64773 167.81231 39090 ft 537 kts 70°
2026-05-07 07:31 44.66523 167.91455 39087 ft 537 kts 70°
2026-05-07 07:32 44.68261 168.01670 39090 ft 538 kts 70°
2026-05-07 07:32 44.69954 168.11673 39090 ft 538 kts 70°
2026-05-07 07:33 44.71675 168.21906 39090 ft 538 kts 70°
2026-05-07 07:33 44.73391 168.32163 39090 ft 538 kts 70°
2026-05-07 07:34 44.75097 168.42429 39086 ft 539 kts 70°
2026-05-07 07:34 44.76791 168.52687 39088 ft 539 kts 70°
2026-05-07 07:35 44.78470 168.62911 39086 ft 539 kts 70°
2026-05-07 07:35 44.80150 168.73205 39085 ft 540 kts 71°
2026-05-07 07:36 44.81824 168.83527 39089 ft 540 kts 71°
2026-05-07 07:36 44.83487 168.93843 39088 ft 541 kts 71°
2026-05-07 07:37 44.85144 169.04185 39085 ft 541 kts 71°
2026-05-07 07:37 44.86794 169.14548 39084 ft 541 kts 71°
2026-05-07 07:38 44.88432 169.24899 39083 ft 541 kts 71°
2026-05-07 07:38 44.90063 169.35276 39083 ft 542 kts 71°
2026-05-07 07:39 44.91686 169.45661 39083 ft 542 kts 71°
2026-05-07 07:39 44.93300 169.56059 39078 ft 542 kts 71°
2026-05-07 07:40 44.94895 169.66393 39081 ft 542 kts 71°
2026-05-07 07:40 44.96491 169.76807 39081 ft 542 kts 71°
2026-05-07 07:41 44.98077 169.87224 39077 ft 543 kts 71°
2026-05-07 07:41 44.99672 169.97665 39075 ft 541 kts 70°
2026-05-07 07:42 45.01930 170.07718 39078 ft 535 kts 64°
2026-05-07 07:42 45.04390 170.17595 39073 ft 535 kts 63°
2026-05-07 07:43 45.06892 170.27518 39075 ft 535 kts 63°
2026-05-07 07:43 45.09376 170.37454 39074 ft 536 kts 63°
2026-05-07 07:44 45.11845 170.47418 39071 ft 536 kts 64°
2026-05-07 07:44 45.14302 170.57392 39071 ft 536 kts 64°
2026-05-07 07:45 45.16753 170.67389 39062 ft 537 kts 64°
2026-05-07 07:45 45.19197 170.77394 39065 ft 537 kts 64°
2026-05-07 07:46 45.21636 170.87427 39066 ft 538 kts 64°
2026-05-07 07:46 45.23657 170.95768 39063 ft 538 kts 64°
2026-05-07 07:47 45.26477 171.07467 39063 ft 539 kts 64°
2026-05-07 07:47 45.28502 171.15904 39062 ft 539 kts 64°
2026-05-07 07:48 45.30914 171.25997 39062 ft 540 kts 64°
2026-05-07 07:48 45.33322 171.36118 39061 ft 540 kts 65°
2026-05-07 07:49 45.35707 171.46185 39056 ft 540 kts 65°
2026-05-07 07:49 45.38098 171.56328 39056 ft 541 kts 65°
2026-05-07 07:50 45.40484 171.66492 39054 ft 541 kts 65°
2026-05-07 07:50 45.42860 171.76666 39050 ft 541 kts 65°
2026-05-07 07:51 45.45230 171.86861 39052 ft 542 kts 65°
2026-05-07 07:51 45.47576 171.96997 39047 ft 542 kts 65°
2026-05-07 07:52 45.49929 172.07212 39048 ft 542 kts 65°
2026-05-07 07:52 45.52274 172.17440 39051 ft 542 kts 65°
2026-05-07 07:53 45.54607 172.27663 39037 ft 542 kts 66°
2026-05-07 07:53 45.56934 172.37911 39041 ft 543 kts 66°
2026-05-07 07:54 45.59252 172.48167 39041 ft 543 kts 66°
2026-05-07 07:54 45.61559 172.58422 39040 ft 543 kts 66°
2026-05-07 07:55 45.63861 172.68709 39040 ft 543 kts 66°
2026-05-07 07:55 45.66140 172.78937 39036 ft 543 kts 66°
2026-05-07 07:56 45.68424 172.89240 39038 ft 543 kts 66°
2026-05-07 07:56 45.70696 172.99537 39028 ft 543 kts 67°
2026-05-07 07:57 45.72962 173.09858 39031 ft 543 kts 67°
2026-05-07 07:57 45.75216 173.20176 39029 ft 543 kts 67°
2026-05-07 07:58 45.77446 173.30435 39029 ft 543 kts 67°
2026-05-07 07:58 45.79684 173.40779 39026 ft 542 kts 67°
2026-05-07 07:59 45.81905 173.51098 39025 ft 542 kts 68°
2026-05-07 07:59 45.84120 173.61443 39024 ft 542 kts 68°
2026-05-07 08:00 45.86327 173.71797 39019 ft 542 kts 68°
2026-05-07 08:00 45.88505 173.82070 39018 ft 541 kts 68°
2026-05-07 08:01 45.90689 173.92423 39021 ft 541 kts 68°
2026-05-07 08:01 45.92865 174.02786 39015 ft 541 kts 68°
2026-05-07 08:02 45.95025 174.13131 39014 ft 541 kts 68°
2026-05-07 08:02 45.97179 174.23500 39017 ft 540 kts 69°
2026-05-07 08:03 45.99306 174.33789 39006 ft 540 kts 69°
2026-05-07 08:03 46.01440 174.44163 39006 ft 540 kts 69°
2026-05-07 08:04 46.03565 174.54548 39007 ft 540 kts 69°
2026-05-07 08:04 46.05680 174.64936 39005 ft 540 kts 69°
2026-05-07 08:05 46.07784 174.75329 39004 ft 541 kts 69°
2026-05-07 08:05 46.09880 174.85736 39007 ft 541 kts 70°
2026-05-07 08:06 46.11968 174.96158 39004 ft 541 kts 70°
2026-05-07 08:06 46.14049 175.06604 38997 ft 541 kts 70°
2026-05-07 08:07 46.16122 175.17063 39002 ft 542 kts 70°
2026-05-07 08:07 46.18173 175.27465 38984 ft 542 kts 70°
2026-05-07 08:08 46.20228 175.37945 38992 ft 542 kts 70°
2026-05-07 08:08 46.22272 175.48423 38990 ft 543 kts 71°
2026-05-07 08:09 46.24300 175.58881 38992 ft 543 kts 71°
2026-05-07 08:09 46.26329 175.69397 38990 ft 543 kts 71°
2026-05-07 08:10 46.28349 175.79925 38989 ft 544 kts 71°
2026-05-07 08:10 46.30360 175.90466 38988 ft 544 kts 71°
2026-05-07 08:11 46.32361 176.01013 38984 ft 544 kts 71°
2026-05-07 08:11 46.34355 176.11581 38981 ft 544 kts 71°
2026-05-07 08:12 46.36339 176.22154 38981 ft 544 kts 71°
2026-05-07 08:12 46.38314 176.32739 38982 ft 545 kts 72°
2026-05-07 08:13 46.40280 176.43336 38983 ft 545 kts 72°
2026-05-07 08:13 46.42236 176.53940 38976 ft 545 kts 72°
2026-05-07 08:14 46.44184 176.64560 38977 ft 545 kts 72°
2026-05-07 08:14 46.46109 176.75121 38978 ft 545 kts 72°
2026-05-07 08:15 46.48035 176.85742 38970 ft 545 kts 72°
2026-05-07 08:15 46.49954 176.96387 38971 ft 545 kts 72°
2026-05-07 08:16 46.51858 177.07017 38970 ft 545 kts 72°
2026-05-07 08:16 46.53760 177.17690 38968 ft 544 kts 72°
2026-05-07 08:17 46.55646 177.28339 38959 ft 544 kts 72°
2026-05-07 08:17 46.57511 177.38935 38961 ft 544 kts 72°
2026-05-07 08:18 46.59374 177.49584 38963 ft 544 kts 73°
2026-05-07 08:18 46.61240 177.60311 38962 ft 543 kts 73°
2026-05-07 08:19 46.63074 177.70921 38960 ft 543 kts 73°
2026-05-07 08:19 46.64902 177.81560 38962 ft 542 kts 73°
2026-05-07 08:20 46.66722 177.92215 38958 ft 542 kts 73°
2026-05-07 08:20 46.68532 178.02873 38960 ft 541 kts 73°
2026-05-07 08:21 46.70327 178.13517 38958 ft 540 kts 73°
2026-05-07 08:21 46.72112 178.24160 38949 ft 540 kts 73°
2026-05-07 08:22 46.73881 178.34773 38953 ft 539 kts 73°
2026-05-07 08:22 46.75628 178.45325 38951 ft 538 kts 73°
2026-05-07 08:23 46.77376 178.55944 38948 ft 538 kts 74°
2026-05-07 08:23 46.79112 178.66560 38947 ft 537 kts 74°
2026-05-07 08:24 46.80836 178.77167 38942 ft 536 kts 74°
2026-05-07 08:24 46.82546 178.87752 38941 ft 535 kts 74°
2026-05-07 08:25 46.84245 178.98341 38941 ft 534 kts 74°
2026-05-07 08:25 46.85920 179.08841 38935 ft 534 kts 75°
2026-05-07 08:26 46.88428 179.24698 38935 ft 533 kts 75°
2026-05-07 08:26 46.90085 179.35256 38935 ft 533 kts 75°
2026-05-07 08:27 46.91734 179.45833 38930 ft 532 kts 75°
2026-05-07 08:27 46.93371 179.56401 38931 ft 532 kts 75°
2026-05-07 08:28 46.94997 179.66967 38927 ft 532 kts 75°
2026-05-07 08:28 46.96604 179.77483 38926 ft 533 kts 75°
2026-05-07 08:29 46.98214 179.88082 38922 ft 533 kts 76°
2026-05-07 08:29 46.99858 179.98670 38919 ft 532 kts 72°
2026-05-07 08:30 47.02228 -179.91088 38918 ft 530 kts 68°
2026-05-07 08:30 47.04771 -179.80930 38913 ft 530 kts 67°
2026-05-07 08:31 47.07332 -179.70782 38911 ft 530 kts 67°
2026-05-07 08:31 47.09855 -179.60688 38907 ft 530 kts 68°
2026-05-07 08:32 47.12373 -179.50529 38904 ft 529 kts 68°
2026-05-07 08:32 47.14874 -179.40381 38901 ft 529 kts 68°
2026-05-07 08:33 47.17367 -179.30218 38899 ft 528 kts 68°
2026-05-07 08:33 47.19850 -179.20053 38896 ft 528 kts 68°
2026-05-07 08:34 47.21904 -179.11614 38894 ft 527 kts 68°
2026-05-07 08:34 47.24366 -179.01452 38887 ft 527 kts 68°
2026-05-07 08:35 47.26821 -178.91274 38887 ft 527 kts 68°
2026-05-07 08:35 47.29662 -178.79433 38882 ft 528 kts 68°
2026-05-07 08:36 47.31707 -178.70873 38876 ft 528 kts 69°
2026-05-07 08:36 47.34137 -178.60658 38872 ft 528 kts 69°
2026-05-07 08:37 47.36543 -178.50492 38872 ft 528 kts 69°
2026-05-07 08:37 47.38957 -178.40248 38867 ft 528 kts 69°
2026-05-07 08:38 47.41361 -178.29996 38869 ft 528 kts 69°
2026-05-07 08:38 47.43755 -178.19740 38863 ft 528 kts 69°
2026-05-07 08:39 47.46143 -178.09460 38860 ft 528 kts 69°
2026-05-07 08:39 47.48515 -177.99202 38861 ft 527 kts 69°
2026-05-07 08:40 47.50863 -177.88999 38858 ft 527 kts 69°
2026-05-07 08:40 47.53212 -177.78740 38854 ft 526 kts 69°
2026-05-07 08:41 47.55547 -177.68496 38853 ft 525 kts 69°
2026-05-07 08:41 47.57870 -177.58255 38845 ft 524 kts 70°
2026-05-07 08:42 47.60181 -177.48020 38840 ft 523 kts 70°
2026-05-07 08:42 47.62478 -177.37794 38847 ft 522 kts 70°
2026-05-07 08:43 47.64750 -177.27633 38844 ft 522 kts 70°
2026-05-07 08:43 47.67023 -177.17420 38833 ft 521 kts 70°
2026-05-07 08:44 47.69285 -177.07202 38830 ft 521 kts 70°
2026-05-07 08:44 47.71538 -176.96978 38839 ft 520 kts 70°
2026-05-07 08:45 47.73781 -176.86748 38827 ft 520 kts 70°
2026-05-07 08:45 47.75998 -176.76589 38830 ft 520 kts 71°
2026-05-07 08:46 47.78217 -176.66366 38830 ft 519 kts 71°
2026-05-07 08:46 47.80426 -176.56143 38823 ft 518 kts 71°
2026-05-07 08:47 47.82623 -176.45921 38821 ft 518 kts 71°
2026-05-07 08:47 47.84807 -176.35711 38818 ft 517 kts 71°
2026-05-07 08:48 47.86963 -176.25580 38814 ft 516 kts 71°
2026-05-07 08:48 47.89125 -176.15372 38815 ft 516 kts 71°
2026-05-07 08:49 47.91276 -176.05167 38813 ft 516 kts 72°
2026-05-07 08:49 47.93415 -175.94964 38806 ft 516 kts 72°
2026-05-07 08:50 47.95545 -175.84752 38808 ft 516 kts 72°
2026-05-07 08:50 47.97670 -175.74513 38802 ft 516 kts 72°
2026-05-07 08:51 47.99788 -175.64255 38800 ft 516 kts 72°
2026-05-07 08:51 48.01892 -175.54012 38797 ft 516 kts 72°
2026-05-07 08:52 48.03977 -175.43813 38794 ft 516 kts 72°
2026-05-07 08:52 48.06066 -175.33539 38791 ft 516 kts 72°
2026-05-07 08:53 48.08146 -175.23258 38789 ft 516 kts 73°
2026-05-07 08:53 48.10218 -175.12957 38785 ft 516 kts 73°
2026-05-07 08:54 48.12274 -175.02687 38779 ft 516 kts 73°
2026-05-07 08:54 48.14325 -174.92387 38776 ft 515 kts 73°
2026-05-07 08:55 48.16362 -174.82100 38771 ft 515 kts 73°
2026-05-07 08:55 48.18388 -174.71813 38769 ft 514 kts 73°
2026-05-07 08:56 48.20391 -174.61590 38766 ft 514 kts 73°
2026-05-07 08:56 48.22394 -174.51314 38764 ft 513 kts 73°
2026-05-07 08:57 48.24391 -174.41014 38758 ft 513 kts 73°
2026-05-07 08:57 48.26373 -174.30734 38754 ft 513 kts 74°
2026-05-07 08:58 48.28344 -174.20460 38749 ft 512 kts 74°
2026-05-07 08:58 48.30306 -174.10171 38746 ft 512 kts 74°
2026-05-07 08:59 48.32245 -173.99949 38746 ft 512 kts 74°
2026-05-07 08:59 48.34189 -173.89647 38739 ft 511 kts 74°
2026-05-07 09:00 48.36120 -173.79359 38737 ft 511 kts 74°
2026-05-07 09:00 48.38044 -173.69050 38734 ft 511 kts 74°
2026-05-07 09:01 48.39956 -173.58744 38734 ft 510 kts 75°
2026-05-07 09:01 48.41854 -173.48460 38732 ft 510 kts 75°
2026-05-07 09:02 48.43745 -173.38154 38731 ft 510 kts 75°
2026-05-07 09:02 48.45626 -173.27850 38726 ft 510 kts 75°
2026-05-07 09:03 48.47495 -173.17550 38728 ft 509 kts 75°
2026-05-07 09:03 48.49341 -173.07320 38723 ft 508 kts 75°
2026-05-07 09:04 48.51185 -172.97040 38721 ft 508 kts 75°
2026-05-07 09:04 48.53019 -172.86762 38723 ft 507 kts 75°
2026-05-07 09:05 48.54845 -172.76469 38717 ft 507 kts 75°
2026-05-07 09:05 48.56663 -172.66159 38728 ft 507 kts 75°
2026-05-07 09:06 48.58464 -172.55890 38719 ft 506 kts 75°
2026-05-07 09:06 48.60245 -172.45672 38717 ft 506 kts 76°
2026-05-07 09:07 48.62028 -172.35385 38714 ft 505 kts 76°
2026-05-07 09:07 48.63803 -172.25090 38712 ft 505 kts 76°
2026-05-07 09:08 48.65525 -172.15035 38712 ft 505 kts 76°
2026-05-07 09:08 48.67277 -172.04746 38710 ft 505 kts 76°
2026-05-07 09:09 48.69017 -171.94464 38716 ft 504 kts 76°
2026-05-07 09:09 48.70738 -171.84243 38710 ft 504 kts 76°
2026-05-07 09:10 48.72463 -171.73936 38706 ft 504 kts 76°
2026-05-07 09:10 48.74174 -171.63647 38716 ft 503 kts 76°
2026-05-07 09:11 48.75876 -171.53352 38718 ft 503 kts 77°
2026-05-07 09:11 48.77569 -171.43049 38715 ft 503 kts 77°
2026-05-07 09:12 48.79250 -171.32749 38715 ft 503 kts 77°
2026-05-07 09:12 48.80922 -171.22448 38713 ft 503 kts 77°
2026-05-07 09:13 48.82572 -171.12213 38714 ft 502 kts 77°
2026-05-07 09:13 48.84225 -171.01908 38718 ft 502 kts 77°
2026-05-07 09:14 48.85867 -170.91602 38712 ft 501 kts 77°
2026-05-07 09:14 48.87497 -170.81303 38714 ft 501 kts 77°
2026-05-07 09:15 48.89118 -170.71002 38717 ft 501 kts 77°
2026-05-07 09:15 48.90727 -170.60713 38715 ft 500 kts 77°
2026-05-07 09:16 48.92326 -170.50415 38716 ft 500 kts 77°
2026-05-07 09:16 48.93905 -170.40182 38717 ft 500 kts 78°
2026-05-07 09:17 48.95486 -170.29877 38712 ft 500 kts 78°
2026-05-07 09:17 48.97058 -170.19561 38716 ft 500 kts 78°
2026-05-07 09:18 48.98619 -170.09249 38714 ft 500 kts 78°
2026-05-07 09:18 49.00171 -169.98934 38718 ft 499 kts 78°
2026-05-07 09:19 49.01685 -169.88610 38719 ft 499 kts 78°
2026-05-07 09:19 49.03152 -169.78370 38720 ft 499 kts 78°
2026-05-07 09:20 49.04627 -169.68030 38719 ft 499 kts 78°
2026-05-07 09:20 49.06096 -169.57700 38722 ft 499 kts 78°
2026-05-07 09:21 49.07558 -169.47363 38724 ft 498 kts 79°
2026-05-07 09:21 49.09003 -169.37079 38725 ft 498 kts 79°
2026-05-07 09:22 49.10445 -169.26737 38722 ft 498 kts 79°
2026-05-07 09:22 49.11877 -169.16398 38725 ft 498 kts 79°
2026-05-07 09:23 49.13058 -169.07813 38726 ft 497 kts 79°
2026-05-07 09:23 49.14473 -168.97460 38731 ft 497 kts 79°
2026-05-07 09:24 49.16107 -168.85418 38729 ft 497 kts 79°
2026-05-07 09:24 49.17266 -168.76811 38729 ft 497 kts 79°
2026-05-07 09:25 49.18650 -168.66465 38731 ft 497 kts 79°
2026-05-07 09:25 49.20028 -168.56091 38730 ft 496 kts 79°
2026-05-07 09:26 49.21394 -168.45734 38734 ft 496 kts 80°
2026-05-07 09:26 49.22741 -168.35445 38734 ft 496 kts 80°
2026-05-07 09:27 49.24087 -168.25086 38736 ft 496 kts 80°
2026-05-07 09:28 49.26087 -168.09543 38741 ft 496 kts 80°
2026-05-07 09:28 49.27410 -167.99174 38741 ft 496 kts 80°
2026-05-07 09:29 49.28722 -167.88809 38743 ft 496 kts 80°
2026-05-07 09:29 49.30026 -167.78427 38744 ft 496 kts 81°
2026-05-07 09:30 49.31319 -167.68047 38746 ft 496 kts 81°
2026-05-07 09:30 49.32596 -167.57724 38749 ft 496 kts 81°
2026-05-07 09:31 49.33871 -167.47332 38748 ft 495 kts 81°
2026-05-07 09:31 49.35137 -167.36942 38751 ft 495 kts 81°
2026-05-07 09:32 49.36392 -167.26553 38751 ft 495 kts 81°
2026-05-07 09:32 49.37636 -167.16170 38755 ft 495 kts 81°
2026-05-07 09:33 49.38871 -167.05787 38751 ft 495 kts 81°
2026-05-07 09:33 49.40097 -166.95382 38757 ft 494 kts 81°
2026-05-07 09:34 49.41313 -166.84987 38760 ft 494 kts 82°
2026-05-07 09:34 49.42520 -166.74585 38760 ft 494 kts 82°
2026-05-07 09:35 49.43709 -166.64259 38764 ft 494 kts 82°
2026-05-07 09:35 49.44896 -166.53864 38771 ft 494 kts 82°
2026-05-07 09:36 49.46071 -166.43480 38774 ft 493 kts 82°
2026-05-07 09:36 49.47238 -166.33077 38774 ft 493 kts 82°
2026-05-07 09:37 49.48398 -166.22659 38773 ft 493 kts 82°
2026-05-07 09:37 49.49547 -166.12242 38781 ft 493 kts 82°
2026-05-07 09:38 49.50677 -166.01899 38784 ft 493 kts 82°
2026-05-07 09:38 49.51806 -165.91501 38787 ft 493 kts 82°
2026-05-07 09:39 49.52925 -165.81097 38791 ft 493 kts 83°
2026-05-07 09:39 49.54034 -165.70685 38795 ft 493 kts 83°
2026-05-07 09:40 49.55135 -165.60269 38797 ft 492 kts 83°
2026-05-07 09:40 49.56224 -165.49864 38800 ft 492 kts 83°
2026-05-07 09:41 49.57302 -165.39456 38801 ft 492 kts 83°
2026-05-07 09:41 49.58371 -165.29054 38815 ft 491 kts 83°
2026-05-07 09:42 49.59431 -165.18639 38807 ft 491 kts 83°
2026-05-07 09:42 49.60474 -165.08300 38818 ft 491 kts 83°
2026-05-07 09:43 49.61514 -164.97908 38820 ft 491 kts 83°
2026-05-07 09:43 49.62546 -164.87496 38830 ft 491 kts 83°
2026-05-07 09:44 49.63566 -164.77092 38823 ft 491 kts 83°
2026-05-07 09:44 49.64580 -164.66650 38832 ft 491 kts 83°
2026-05-07 09:45 49.65582 -164.56232 38837 ft 491 kts 84°
2026-05-07 09:45 49.66570 -164.45866 38834 ft 491 kts 84°
2026-05-07 09:46 49.67552 -164.35432 38841 ft 491 kts 84°
2026-05-07 09:46 49.68524 -164.25011 38847 ft 490 kts 84°
2026-05-07 09:47 49.69490 -164.14585 38851 ft 491 kts 84°
2026-05-07 09:47 49.70447 -164.04130 38858 ft 491 kts 84°
2026-05-07 09:48 49.71392 -163.93695 38858 ft 490 kts 84°
2026-05-07 09:48 49.72329 -163.83249 38864 ft 491 kts 84°
2026-05-07 09:49 49.73257 -163.72793 38869 ft 491 kts 84°
2026-05-07 09:49 49.74176 -163.62331 38872 ft 491 kts 84°
2026-05-07 09:50 49.75085 -163.51862 38875 ft 491 kts 84°
2026-05-07 09:50 49.75987 -163.41380 38881 ft 491 kts 84°
2026-05-07 09:51 49.76871 -163.30950 38883 ft 492 kts 84°
2026-05-07 09:51 49.77755 -163.20458 38888 ft 492 kts 84°
2026-05-07 09:52 49.78628 -163.09967 38886 ft 492 kts 84°
2026-05-07 09:52 49.79492 -162.99452 38887 ft 492 kts 85°
2026-05-07 09:53 49.80346 -162.88920 38898 ft 493 kts 85°
2026-05-07 09:53 49.81190 -162.78392 38900 ft 493 kts 85°
2026-05-07 09:54 49.82028 -162.67846 38904 ft 493 kts 85°
2026-05-07 09:54 49.82858 -162.57287 38908 ft 494 kts 85°
2026-05-07 09:55 49.83671 -162.46786 38911 ft 494 kts 85°
2026-05-07 09:55 49.84480 -162.36217 38920 ft 494 kts 85°
2026-05-07 09:56 49.85283 -162.25617 38919 ft 495 kts 85°
2026-05-07 09:56 49.86077 -162.15017 38920 ft 495 kts 85°
2026-05-07 09:57 49.86858 -162.04409 38927 ft 496 kts 85°
2026-05-07 09:57 49.87632 -161.93786 38929 ft 496 kts 85°
2026-05-07 09:58 49.88397 -161.83148 38929 ft 496 kts 85°
2026-05-07 09:58 49.89149 -161.72561 38933 ft 497 kts 85°
2026-05-07 09:59 49.89895 -161.61904 38934 ft 497 kts 85°
2026-05-07 09:59 49.90632 -161.51233 38940 ft 497 kts 85°
2026-05-07 10:00 49.91359 -161.40561 38939 ft 497 kts 85°
2026-05-07 10:00 49.92077 -161.29880 38938 ft 498 kts 86°
2026-05-07 10:01 49.92786 -161.19181 38946 ft 499 kts 86°
2026-05-07 10:01 49.93488 -161.08447 38942 ft 499 kts 85°
2026-05-07 10:02 49.94179 -160.97731 38941 ft 500 kts 86°
2026-05-07 10:02 49.94860 -160.87008 38958 ft 500 kts 86°
2026-05-07 10:03 49.95532 -160.76254 38954 ft 501 kts 86°
2026-05-07 10:03 49.96196 -160.65465 38954 ft 501 kts 86°
2026-05-07 10:04 49.96850 -160.54671 38956 ft 502 kts 86°
2026-05-07 10:04 49.97495 -160.43870 38962 ft 503 kts 86°
2026-05-07 10:05 49.98131 -160.33042 38965 ft 503 kts 86°
2026-05-07 10:05 49.98752 -160.22280 38965 ft 504 kts 86°
2026-05-07 10:06 49.99370 -160.11429 38968 ft 504 kts 86°
2026-05-07 10:06 50.00058 -160.00585 38967 ft 505 kts 81°
2026-05-07 10:07 50.01453 -159.89882 38968 ft 506 kts 78°
2026-05-07 10:07 50.02991 -159.79198 38959 ft 506 kts 78°
2026-05-07 10:08 50.04542 -159.68520 38970 ft 506 kts 78°
2026-05-07 10:08 50.06073 -159.57824 38972 ft 507 kts 78°
2026-05-07 10:09 50.07334 -159.48915 38972 ft 507 kts 78°
2026-05-07 10:09 50.09091 -159.36391 38976 ft 507 kts 78°
2026-05-07 10:10 50.10332 -159.27477 38977 ft 507 kts 78°
2026-05-07 10:10 50.11819 -159.16727 38981 ft 507 kts 78°
2026-05-07 10:11 50.13296 -159.05979 38980 ft 507 kts 78°
2026-05-07 10:11 50.14763 -158.95221 38983 ft 508 kts 78°
2026-05-07 10:12 50.16214 -158.84501 38982 ft 508 kts 78°
2026-05-07 10:12 50.17664 -158.73710 38986 ft 509 kts 78°
2026-05-07 10:13 50.19107 -158.62890 38985 ft 509 kts 78°
2026-05-07 10:13 50.20540 -158.52063 38985 ft 509 kts 79°
2026-05-07 10:14 50.21962 -158.41235 38987 ft 509 kts 79°
2026-05-07 10:14 50.23375 -158.30392 38985 ft 510 kts 79°
2026-05-07 10:15 50.24779 -158.19539 38991 ft 510 kts 79°
2026-05-07 10:15 50.26174 -158.08664 38991 ft 510 kts 79°
2026-05-07 10:16 50.27558 -157.97792 38991 ft 510 kts 79°
2026-05-07 10:16 50.28926 -157.86960 38991 ft 510 kts 79°
2026-05-07 10:17 50.30291 -157.76066 38994 ft 511 kts 79°
2026-05-07 10:17 50.31649 -157.65144 38992 ft 511 kts 79°
2026-05-07 10:18 50.32994 -157.54230 38992 ft 511 kts 79°
2026-05-07 10:18 50.34329 -157.43312 38994 ft 511 kts 79°
2026-05-07 10:19 50.35656 -157.32367 38993 ft 511 kts 80°
2026-05-07 10:19 50.36966 -157.21478 38995 ft 511 kts 80°
2026-05-07 10:20 50.38279 -157.10464 38991 ft 511 kts 80°
2026-05-07 10:20 50.39567 -156.99573 38992 ft 511 kts 80°
2026-05-07 10:21 50.40861 -156.88542 38998 ft 511 kts 80°
2026-05-07 10:21 50.42128 -156.77639 38994 ft 511 kts 80°
2026-05-07 10:22 50.43401 -156.66598 38997 ft 511 kts 80°
2026-05-07 10:22 50.44648 -156.55682 38992 ft 511 kts 81°
2026-05-07 10:23 50.45890 -156.44709 38992 ft 511 kts 81°
2026-05-07 10:23 50.47126 -156.33703 38994 ft 511 kts 81°
2026-05-07 10:24 50.48350 -156.22701 38996 ft 511 kts 81°
2026-05-07 10:24 50.49564 -156.11690 39003 ft 511 kts 81°
2026-05-07 10:25 50.50765 -156.00696 38994 ft 510 kts 81°
2026-05-07 10:25 50.51956 -155.89694 38993 ft 510 kts 81°
2026-05-07 10:26 50.53129 -155.78761 38997 ft 510 kts 82°
2026-05-07 10:26 50.54299 -155.67748 38995 ft 510 kts 82°
2026-05-07 10:27 50.55458 -155.56740 38993 ft 510 kts 82°
2026-05-07 10:27 50.56606 -155.45725 38995 ft 510 kts 82°
2026-05-07 10:28 50.57736 -155.34787 38995 ft 510 kts 82°
2026-05-07 10:28 50.58869 -155.23711 38995 ft 510 kts 82°
2026-05-07 10:29 50.59984 -155.12701 38992 ft 509 kts 82°
2026-05-07 10:29 50.61083 -155.01748 38994 ft 509 kts 83°
2026-05-07 10:30 50.62721 -154.85217 38994 ft 509 kts 83°
2026-05-07 10:30 50.63800 -154.74186 38992 ft 509 kts 83°
2026-05-07 10:31 50.64868 -154.63156 38991 ft 509 kts 83°
2026-05-07 10:31 50.65925 -154.52130 38992 ft 509 kts 83°
2026-05-07 10:32 50.66973 -154.41094 38993 ft 508 kts 83°
2026-05-07 10:32 50.68003 -154.30126 38991 ft 508 kts 83°
2026-05-07 10:33 50.69028 -154.19095 38992 ft 508 kts 84°
2026-05-07 10:33 50.70042 -154.08065 38996 ft 508 kts 84°
2026-05-07 10:34 50.71045 -153.97033 38989 ft 508 kts 84°
2026-05-07 10:34 50.72039 -153.85987 38994 ft 508 kts 84°
2026-05-07 10:35 50.73021 -153.74956 38990 ft 508 kts 84°
2026-05-07 10:35 50.73994 -153.63892 38990 ft 509 kts 84°
2026-05-07 10:36 50.74958 -153.52816 38990 ft 509 kts 85°
2026-05-07 10:36 50.75911 -153.41737 38988 ft 509 kts 85°
2026-05-07 10:37 50.76853 -153.30659 38990 ft 509 kts 85°
2026-05-07 10:37 50.77786 -153.19564 38990 ft 509 kts 85°
2026-05-07 10:38 50.78703 -153.08526 38987 ft 509 kts 85°
2026-05-07 10:38 50.79615 -152.97425 38983 ft 510 kts 85°
2026-05-07 10:39 50.80516 -152.86310 38987 ft 510 kts 85°
2026-05-07 10:39 50.81408 -152.75190 38985 ft 510 kts 85°
2026-05-07 10:40 50.82288 -152.64069 38984 ft 510 kts 86°
2026-05-07 10:40 50.83158 -152.52943 38985 ft 509 kts 86°
2026-05-07 10:41 50.84018 -152.41814 38983 ft 509 kts 86°
2026-05-07 10:41 50.84866 -152.30679 38982 ft 509 kts 86°
2026-05-07 10:42 50.85699 -152.19617 38981 ft 509 kts 86°
2026-05-07 10:42 50.86527 -152.08472 38982 ft 509 kts 86°
2026-05-07 10:43 50.87344 -151.97322 38985 ft 509 kts 87°
2026-05-07 10:43 50.88145 -151.86248 38976 ft 509 kts 87°
2026-05-07 10:44 50.88945 -151.75045 38974 ft 509 kts 87°
2026-05-07 10:44 50.89724 -151.63971 38974 ft 509 kts 87°
2026-05-07 10:45 50.90498 -151.52812 38978 ft 509 kts 88°
2026-05-07 10:45 50.91262 -151.41660 38977 ft 509 kts 88°
2026-05-07 10:46 50.92014 -151.30512 38971 ft 509 kts 88°
2026-05-07 10:46 50.92756 -151.19346 38973 ft 509 kts 88°
2026-05-07 10:47 50.93487 -151.08184 38970 ft 509 kts 88°
2026-05-07 10:47 50.94209 -150.97006 38972 ft 509 kts 89°
2026-05-07 10:48 50.94914 -150.85906 38967 ft 509 kts 89°
2026-05-07 10:48 50.95613 -150.74749 38974 ft 508 kts 89°
2026-05-07 10:49 50.96302 -150.63578 38971 ft 508 kts 89°
2026-05-07 10:49 50.96978 -150.52435 38966 ft 507 kts 89°
2026-05-07 10:50 50.97644 -150.41272 38961 ft 507 kts 90°
2026-05-07 10:50 50.98297 -150.30144 38959 ft 506 kts 90°
2026-05-07 10:51 50.98936 -150.19084 38959 ft 505 kts 90°
2026-05-07 10:51 50.99566 -150.07977 38959 ft 505 kts 90°
2026-05-07 10:52 51.00175 -149.96861 39265 ft 504 kts 91°
2026-05-07 10:52 51.00343 -149.91325 39454 ft 501 kts 94°
2026-05-07 10:52 51.00410 -149.85800 39632 ft 500 kts 95°
2026-05-07 10:53 51.00442 -149.80281 39800 ft 500 kts 95°
2026-05-07 10:53 51.00474 -149.74769 39940 ft 500 kts 95°
2026-05-07 10:53 51.00518 -149.69249 40093 ft 500 kts 94°
2026-05-07 10:53 51.00575 -149.63720 40236 ft 501 kts 94°
2026-05-07 10:54 51.00642 -149.58186 40375 ft 501 kts 94°
2026-05-07 10:54 51.00714 -149.52658 40512 ft 501 kts 94°
2026-05-07 10:54 51.00786 -149.47126 40649 ft 501 kts 94°
2026-05-07 10:54 51.00857 -149.41595 40786 ft 501 kts 94°
2026-05-07 10:55 51.00924 -149.36064 40910 ft 501 kts 94°
2026-05-07 10:55 51.00988 -149.30582 40949 ft 502 kts 94°
2026-05-07 10:55 51.01108 -149.19494 40955 ft 502 kts 94°
2026-05-07 10:56 51.01217 -149.08410 40945 ft 502 kts 94°
2026-05-07 10:56 51.01298 -148.99196 40946 ft 502 kts 94°
2026-05-07 10:57 51.01386 -148.88109 40943 ft 502 kts 94°
2026-05-07 10:57 51.01464 -148.77025 40945 ft 502 kts 94°
2026-05-07 10:58 51.01532 -148.65933 40943 ft 502 kts 94°
2026-05-07 10:58 51.01589 -148.54855 40945 ft 502 kts 94°
2026-05-07 10:59 51.01636 -148.43749 40946 ft 502 kts 94°
2026-05-07 10:59 51.01672 -148.32735 40945 ft 502 kts 94°
2026-05-07 11:00 51.01697 -148.21616 40942 ft 503 kts 94°
2026-05-07 11:00 51.01713 -148.10497 40943 ft 503 kts 94°
2026-05-07 11:01 51.01717 -147.99393 40948 ft 503 kts 95°
2026-05-07 11:01 51.01712 -147.88293 40947 ft 503 kts 95°
2026-05-07 11:02 51.01695 -147.77182 40950 ft 503 kts 95°
2026-05-07 11:02 51.01668 -147.66068 40951 ft 503 kts 95°
2026-05-07 11:03 51.01631 -147.54950 40954 ft 503 kts 95°
2026-05-07 11:03 51.01583 -147.43922 40959 ft 503 kts 95°
2026-05-07 11:04 51.01525 -147.32810 40961 ft 503 kts 95°
2026-05-07 11:04 51.01456 -147.21687 40966 ft 503 kts 95°
2026-05-07 11:05 51.01376 -147.10588 40971 ft 503 kts 95°
2026-05-07 11:05 51.01285 -146.99462 40974 ft 503 kts 95°
2026-05-07 11:06 51.01185 -146.88354 40974 ft 503 kts 95°
2026-05-07 11:06 51.01073 -146.77224 40982 ft 503 kts 96°
2026-05-07 11:07 51.00952 -146.66185 40985 ft 503 kts 96°
2026-05-07 11:07 51.00820 -146.55065 40988 ft 503 kts 96°
2026-05-07 11:08 51.00677 -146.43949 40994 ft 503 kts 96°
2026-05-07 11:08 51.00523 -146.32843 40998 ft 503 kts 96°
2026-05-07 11:09 51.00364 -146.22091 40999 ft 503 kts 96°
2026-05-07 11:09 51.00189 -146.10890 41007 ft 503 kts 96°
2026-05-07 11:10 50.99640 -145.99881 41011 ft 496 kts 107°
2026-05-07 11:10 50.97710 -145.89477 41015 ft 489 kts 114°
2026-05-07 11:11 50.95390 -145.79414 41019 ft 488 kts 116°
2026-05-07 11:11 50.92997 -145.69334 41027 ft 488 kts 116°
2026-05-07 11:12 50.90627 -145.59237 41035 ft 488 kts 115°
2026-05-07 11:12 50.88275 -145.49150 41026 ft 488 kts 115°
2026-05-07 11:13 50.85919 -145.39068 41033 ft 488 kts 116°
2026-05-07 11:13 50.83548 -145.28975 41045 ft 488 kts 116°
2026-05-07 11:14 50.81187 -145.18976 41045 ft 488 kts 116°
2026-05-07 11:14 50.78801 -145.08919 41045 ft 488 kts 116°
2026-05-07 11:15 50.76409 -144.98883 41054 ft 488 kts 116°
2026-05-07 11:15 50.74008 -144.88855 41057 ft 488 kts 116°
2026-05-07 11:16 50.71597 -144.78834 41059 ft 488 kts 116°
2026-05-07 11:16 50.69178 -144.68823 41066 ft 488 kts 116°
2026-05-07 11:17 50.66750 -144.58822 41071 ft 488 kts 116°
2026-05-07 11:17 50.64313 -144.48826 41072 ft 488 kts 116°
2026-05-07 11:18 50.61884 -144.38910 41081 ft 488 kts 116°
2026-05-07 11:18 50.59433 -144.28949 41083 ft 488 kts 116°
2026-05-07 11:19 50.56966 -144.18967 41088 ft 488 kts 116°
2026-05-07 11:19 50.54498 -144.09028 41088 ft 488 kts 116°
2026-05-07 11:20 50.52020 -143.99092 41091 ft 488 kts 116°
2026-05-07 11:20 50.49540 -143.89193 41094 ft 487 kts 116°
2026-05-07 11:21 50.47050 -143.79294 41103 ft 487 kts 116°
2026-05-07 11:21 50.44553 -143.69415 41104 ft 487 kts 116°
2026-05-07 11:22 50.42046 -143.59542 41118 ft 486 kts 116°
2026-05-07 11:22 50.39549 -143.49748 41113 ft 486 kts 117°
2026-05-07 11:23 50.37031 -143.39913 41114 ft 486 kts 117°
2026-05-07 11:23 50.34510 -143.30112 41118 ft 485 kts 117°
2026-05-07 11:24 50.31981 -143.20321 41120 ft 485 kts 117°
2026-05-07 11:24 50.29445 -143.10545 41125 ft 485 kts 117°
2026-05-07 11:25 50.26900 -143.00776 41128 ft 485 kts 117°
2026-05-07 11:25 50.24349 -142.91024 41136 ft 484 kts 117°
2026-05-07 11:26 50.21789 -142.81285 41138 ft 484 kts 117°
2026-05-07 11:26 50.19226 -142.71569 41139 ft 484 kts 117°
2026-05-07 11:27 50.16654 -142.61863 41141 ft 484 kts 117°
2026-05-07 11:27 50.14075 -142.52175 41150 ft 484 kts 117°
2026-05-07 11:28 50.11488 -142.42493 41150 ft 483 kts 118°
2026-05-07 11:28 50.08912 -142.32894 41153 ft 483 kts 118°
2026-05-07 11:29 50.06313 -142.23251 41155 ft 483 kts 118°
2026-05-07 11:29 50.03709 -142.13626 41158 ft 482 kts 118°
2026-05-07 11:30 50.01099 -142.04020 41162 ft 482 kts 118°
2026-05-07 11:30 49.98106 -141.94769 41167 ft 477 kts 124°
2026-05-07 11:31 49.94857 -141.85774 41168 ft 476 kts 125°
2026-05-07 11:31 49.91576 -141.76857 41169 ft 476 kts 125°
2026-05-07 11:32 49.86642 -141.63473 41176 ft 476 kts 125°
2026-05-07 11:33 49.83354 -141.54565 41174 ft 476 kts 125°
2026-05-07 11:33 49.80059 -141.45662 41176 ft 476 kts 125°
2026-05-07 11:34 49.76757 -141.36773 41178 ft 476 kts 125°
2026-05-07 11:34 49.73468 -141.27950 41178 ft 476 kts 125°
2026-05-07 11:35 49.70151 -141.19081 41181 ft 477 kts 125°
2026-05-07 11:35 49.66823 -141.10216 41190 ft 477 kts 125°
2026-05-07 11:36 49.63489 -141.01362 41186 ft 477 kts 125°
2026-05-07 11:36 49.60145 -140.92513 41186 ft 477 kts 125°
2026-05-07 11:37 49.56817 -140.83737 41188 ft 477 kts 125°
2026-05-07 11:37 49.53440 -140.74860 41189 ft 477 kts 125°
2026-05-07 11:38 49.50074 -140.66042 41202 ft 477 kts 125°
2026-05-07 11:38 49.46725 -140.57297 41185 ft 477 kts 125°
2026-05-07 11:39 49.43327 -140.48453 41195 ft 477 kts 125°
2026-05-07 11:39 49.39962 -140.39729 41195 ft 477 kts 125°
2026-05-07 11:40 49.36573 -140.30968 41196 ft 477 kts 125°
2026-05-07 11:40 49.33176 -140.22215 41199 ft 477 kts 125°
2026-05-07 11:41 49.29773 -140.13480 41201 ft 477 kts 125°
2026-05-07 11:41 49.26360 -140.04746 41206 ft 477 kts 125°
2026-05-07 11:42 49.22962 -139.96077 41203 ft 477 kts 126°
2026-05-07 11:42 49.19534 -139.87364 41211 ft 478 kts 126°
2026-05-07 11:43 49.16105 -139.78675 41206 ft 478 kts 126°
2026-05-07 11:43 49.12661 -139.69976 41210 ft 478 kts 126°
2026-05-07 11:44 49.09794 -139.62756 41213 ft 478 kts 126°
2026-05-07 11:44 49.05776 -139.52670 41211 ft 478 kts 126°
2026-05-07 11:45 49.02878 -139.45419 41216 ft 479 kts 126°
2026-05-07 11:45 48.99426 -139.36807 41216 ft 479 kts 126°
2026-05-07 11:46 48.95952 -139.28169 41218 ft 479 kts 126°
2026-05-07 11:46 48.92462 -139.19518 41217 ft 479 kts 126°
2026-05-07 11:47 48.88969 -139.10893 41223 ft 479 kts 126°
2026-05-07 11:47 48.85468 -139.02274 41225 ft 479 kts 126°
2026-05-07 11:48 48.81959 -138.93663 41226 ft 479 kts 126°
2026-05-07 11:48 48.78449 -138.85075 41227 ft 479 kts 126°
2026-05-07 11:49 48.74950 -138.76543 41229 ft 479 kts 127°
2026-05-07 11:49 48.71424 -138.67971 41227 ft 479 kts 127°
2026-05-07 11:50 48.67891 -138.59411 41228 ft 479 kts 127°
2026-05-07 11:50 48.64357 -138.50876 41233 ft 479 kts 127°
2026-05-07 11:51 48.60812 -138.42344 41239 ft 478 kts 127°
2026-05-07 11:51 48.57270 -138.33841 41241 ft 478 kts 127°
2026-05-07 11:52 48.53718 -138.25344 41238 ft 478 kts 127°
2026-05-07 11:52 48.50162 -138.16865 41235 ft 478 kts 127°
2026-05-07 11:53 48.46600 -138.08398 41232 ft 478 kts 127°
2026-05-07 11:53 48.43055 -137.99997 41242 ft 478 kts 127°
2026-05-07 11:54 48.39481 -137.91553 41238 ft 478 kts 127°
2026-05-07 11:54 48.35895 -137.83108 41237 ft 478 kts 127°
2026-05-07 11:55 48.32306 -137.74684 41237 ft 478 kts 127°
2026-05-07 11:55 48.28713 -137.66274 41240 ft 478 kts 127°
2026-05-07 11:56 48.25112 -137.57873 41243 ft 479 kts 127°
2026-05-07 11:56 48.21504 -137.49481 41240 ft 478 kts 127°
2026-05-07 11:57 48.17913 -137.41155 41245 ft 478 kts 127°
2026-05-07 11:57 48.14291 -137.32783 41245 ft 478 kts 128°
2026-05-07 11:58 48.10666 -137.24428 41247 ft 478 kts 128°
2026-05-07 11:58 48.07037 -137.16092 41245 ft 478 kts 128°
2026-05-07 11:59 48.03401 -137.07765 41249 ft 478 kts 128°
2026-05-07 11:59 47.99758 -136.99449 41251 ft 478 kts 128°
2026-05-07 12:00 47.96392 -136.90819 41250 ft 482 kts 122°
2026-05-07 12:00 47.93288 -136.81941 41253 ft 482 kts 122°
2026-05-07 12:01 47.90146 -136.73102 41253 ft 482 kts 123°
2026-05-07 12:01 47.86962 -136.64388 41258 ft 482 kts 123°
2026-05-07 12:02 47.83728 -136.55648 41258 ft 482 kts 123°
2026-05-07 12:02 47.80487 -136.46922 41263 ft 482 kts 123°
2026-05-07 12:03 47.77241 -136.38201 41264 ft 482 kts 124°
2026-05-07 12:03 47.73987 -136.29483 41264 ft 482 kts 124°
2026-05-07 12:04 47.70726 -136.20774 41266 ft 482 kts 124°
2026-05-07 12:04 47.67460 -136.12080 41263 ft 482 kts 124°
2026-05-07 12:05 47.64186 -136.03392 41266 ft 482 kts 124°
2026-05-07 12:05 47.60900 -135.94701 41271 ft 483 kts 124°
2026-05-07 12:06 47.57612 -135.86035 41267 ft 483 kts 124°
2026-05-07 12:06 47.54333 -135.77418 41270 ft 483 kts 124°
2026-05-07 12:07 47.51012 -135.68721 41266 ft 483 kts 124°
2026-05-07 12:07 47.47727 -135.60145 41267 ft 483 kts 124°
2026-05-07 12:08 47.44409 -135.51510 41282 ft 483 kts 124°
2026-05-07 12:08 47.41087 -135.42894 41281 ft 483 kts 124°
2026-05-07 12:09 47.37752 -135.34273 41269 ft 483 kts 124°
2026-05-07 12:09 47.34414 -135.25668 41275 ft 483 kts 125°
2026-05-07 12:10 47.31068 -135.17071 41276 ft 483 kts 125°
2026-05-07 12:10 47.27716 -135.08488 41268 ft 484 kts 125°
2026-05-07 12:11 47.24354 -134.99906 41276 ft 484 kts 125°
2026-05-07 12:11 47.21008 -134.91389 41274 ft 484 kts 125°
2026-05-07 12:12 47.17635 -134.82832 41272 ft 484 kts 125°
2026-05-07 12:12 47.14252 -134.74278 41270 ft 484 kts 125°
2026-05-07 12:13 47.10866 -134.65742 41276 ft 484 kts 125°
2026-05-07 12:13 47.07472 -134.57212 41274 ft 484 kts 125°
2026-05-07 12:14 47.04072 -134.48695 41273 ft 484 kts 125°
2026-05-07 12:14 47.00665 -134.40188 41277 ft 484 kts 126°
2026-05-07 12:15 46.97246 -134.31675 41274 ft 484 kts 126°
2026-05-07 12:15 46.93825 -134.23186 41276 ft 484 kts 126°
2026-05-07 12:16 46.90415 -134.14749 41275 ft 484 kts 126°
2026-05-07 12:16 46.86979 -134.06275 41283 ft 485 kts 126°
2026-05-07 12:17 46.83535 -133.97806 41281 ft 485 kts 126°
2026-05-07 12:17 46.80082 -133.89344 41282 ft 485 kts 126°
2026-05-07 12:18 46.76618 -133.80879 41270 ft 485 kts 126°
2026-05-07 12:18 46.73145 -133.72419 41291 ft 486 kts 126°
2026-05-07 12:19 46.69670 -133.63978 41281 ft 486 kts 126°
2026-05-07 12:19 46.66182 -133.55534 41285 ft 487 kts 126°
2026-05-07 12:20 46.62686 -133.47097 41283 ft 487 kts 126°
2026-05-07 12:20 46.59182 -133.38665 41284 ft 487 kts 127°
2026-05-07 12:21 46.55662 -133.30221 41286 ft 488 kts 127°
2026-05-07 12:21 46.52165 -133.21856 41286 ft 488 kts 127°
2026-05-07 12:22 46.48637 -133.13445 41288 ft 487 kts 127°
2026-05-07 12:22 46.45108 -133.05055 41288 ft 487 kts 127°
2026-05-07 12:23 46.41574 -132.96679 41286 ft 487 kts 127°
2026-05-07 12:23 46.38033 -132.88314 41285 ft 487 kts 127°
2026-05-07 12:24 46.34485 -132.79957 41288 ft 487 kts 127°
2026-05-07 12:24 46.30924 -132.71596 41290 ft 488 kts 127°
2026-05-07 12:25 46.27358 -132.63245 41289 ft 488 kts 127°
2026-05-07 12:25 46.23781 -132.54893 41288 ft 488 kts 127°
2026-05-07 12:26 46.20196 -132.46549 41288 ft 489 kts 127°
2026-05-07 12:26 46.16627 -132.38265 41285 ft 489 kts 127°
2026-05-07 12:27 46.13023 -132.29927 41287 ft 490 kts 127°
2026-05-07 12:27 46.09410 -132.21592 41290 ft 490 kts 127°
2026-05-07 12:28 46.05792 -132.13271 41294 ft 490 kts 127°
2026-05-07 12:28 46.02171 -132.04967 41291 ft 490 kts 127°
2026-05-07 12:29 45.98522 -131.96684 41291 ft 489 kts 129°
2026-05-07 12:29 45.94651 -131.88663 41291 ft 487 kts 130°
2026-05-07 12:30 45.91384 -131.82088 41291 ft 487 kts 130°
2026-05-07 12:30 45.86842 -131.72865 41293 ft 486 kts 130°
2026-05-07 12:31 45.83613 -131.66260 41292 ft 486 kts 130°
2026-05-07 12:31 45.79730 -131.58314 41289 ft 486 kts 130°
2026-05-07 12:32 45.75212 -131.49098 41291 ft 486 kts 130°
2026-05-07 12:32 45.71968 -131.42502 41294 ft 487 kts 130°
2026-05-07 12:33 45.66098 -131.30608 41294 ft 488 kts 130°
2026-05-07 12:33 45.62176 -131.22689 41296 ft 489 kts 130°
2026-05-07 12:34 45.58233 -131.14750 41290 ft 489 kts 130°
2026-05-07 12:34 45.54279 -131.06812 41286 ft 490 kts 130°
2026-05-07 12:35 45.50393 -130.99030 41287 ft 491 kts 130°
2026-05-07 12:35 45.46454 -130.91164 41284 ft 492 kts 130°
2026-05-07 12:36 45.42462 -130.83215 41286 ft 492 kts 130°
2026-05-07 12:36 45.38473 -130.75294 41286 ft 493 kts 130°
2026-05-07 12:37 45.34466 -130.67359 41289 ft 493 kts 130°
2026-05-07 12:37 45.30456 -130.59441 41289 ft 494 kts 130°
2026-05-07 12:38 45.27311 -130.53245 41289 ft 494 kts 130°
2026-05-07 12:38 45.23690 -130.46115 41283 ft 475 kts 130°
2026-05-07 12:39 45.19899 -130.38669 41280 ft 457 kts 130°
2026-05-07 12:39 45.16233 -130.31498 41279 ft 440 kts 130°
2026-05-07 12:40 45.12620 -130.24467 41287 ft 444 kts 130°
2026-05-07 12:40 45.09017 -130.17481 41287 ft 452 kts 130°
2026-05-07 12:41 45.05298 -130.10272 41297 ft 461 kts 130°
2026-05-07 12:41 45.01459 -130.02916 41277 ft 468 kts 133°
2026-05-07 12:42 44.96801 -129.96507 41290 ft 469 kts 145°
2026-05-07 12:42 44.91638 -129.90763 41281 ft 476 kts 147°
2026-05-07 12:43 44.86319 -129.85046 41278 ft 484 kts 147°
2026-05-07 12:43 44.80957 -129.79273 41285 ft 486 kts 146°
2026-05-07 12:44 44.75593 -129.73471 41286 ft 485 kts 146°
2026-05-07 12:44 44.70274 -129.67722 41284 ft 486 kts 146°
2026-05-07 12:45 44.64907 -129.61935 41283 ft 486 kts 146°
2026-05-07 12:45 44.59535 -129.56159 41275 ft 486 kts 146°
2026-05-07 12:46 44.54167 -129.50402 41281 ft 486 kts 146°
2026-05-07 12:46 44.48783 -129.44641 41274 ft 486 kts 146°
2026-05-07 12:47 44.43398 -129.38893 41274 ft 487 kts 146°
2026-05-07 12:47 44.38012 -129.33157 41277 ft 487 kts 146°
2026-05-07 12:48 44.32620 -129.27429 41274 ft 487 kts 146°
2026-05-07 12:48 44.27227 -129.21713 41277 ft 487 kts 146°
2026-05-07 12:49 44.21823 -129.15999 41273 ft 487 kts 146°
2026-05-07 12:49 44.16422 -129.10301 41272 ft 487 kts 146°
2026-05-07 12:50 44.11013 -129.04609 41268 ft 487 kts 146°
2026-05-07 12:50 44.05630 -128.98958 41272 ft 488 kts 146°
2026-05-07 12:51 44.00199 -128.93269 41267 ft 488 kts 146°
2026-05-07 12:51 43.94778 -128.87604 41265 ft 488 kts 146°
2026-05-07 12:52 43.89347 -128.81941 41264 ft 488 kts 146°
2026-05-07 12:52 43.83914 -128.76290 41263 ft 488 kts 146°
2026-05-07 12:53 43.78476 -128.70647 41264 ft 488 kts 146°
2026-05-07 12:53 43.73032 -128.65011 41265 ft 488 kts 146°
2026-05-07 12:54 43.67588 -128.59389 41262 ft 488 kts 146°
2026-05-07 12:54 43.62143 -128.53777 41264 ft 488 kts 146°
2026-05-07 12:55 43.56725 -128.48207 41257 ft 488 kts 146°
2026-05-07 12:55 43.51276 -128.42616 41256 ft 488 kts 145°
2026-05-07 12:56 43.45824 -128.37037 41255 ft 488 kts 145°
2026-05-07 12:56 43.40356 -128.31454 41260 ft 488 kts 145°
2026-05-07 12:57 43.34897 -128.25894 41262 ft 488 kts 145°
2026-05-07 12:57 43.29437 -128.20344 41257 ft 488 kts 145°
2026-05-07 12:58 43.24012 -128.14843 41255 ft 488 kts 145°
2026-05-07 12:58 43.18547 -128.09313 41253 ft 488 kts 145°
2026-05-07 12:59 43.13079 -128.03793 41255 ft 488 kts 145°
2026-05-07 12:59 43.07614 -127.98290 41245 ft 488 kts 145°
2026-05-07 13:00 43.02139 -127.92788 41247 ft 488 kts 145°
2026-05-07 13:00 42.96670 -127.87305 41247 ft 488 kts 145°
2026-05-07 13:01 42.91192 -127.81826 41242 ft 487 kts 145°
2026-05-07 13:01 42.85718 -127.76361 41247 ft 487 kts 145°
2026-05-07 13:02 42.80281 -127.70946 41249 ft 487 kts 145°
2026-05-07 13:02 42.74806 -127.65506 41245 ft 487 kts 145°
2026-05-07 13:03 42.69334 -127.60081 41222 ft 487 kts 145°
2026-05-07 13:03 42.63863 -127.54669 41236 ft 486 kts 145°
2026-05-07 13:04 42.58388 -127.49265 41236 ft 486 kts 145°
2026-05-07 13:04 42.52917 -127.43877 41232 ft 486 kts 145°
2026-05-07 13:05 42.47439 -127.38494 41232 ft 486 kts 145°
2026-05-07 13:05 42.41959 -127.33121 41231 ft 486 kts 145°
2026-05-07 13:06 42.36477 -127.27758 41225 ft 486 kts 145°
2026-05-07 13:06 42.30991 -127.22402 41226 ft 486 kts 145°
2026-05-07 13:07 42.25545 -127.17097 41223 ft 486 kts 145°
2026-05-07 13:07 42.20062 -127.11768 41222 ft 486 kts 145°
2026-05-07 13:08 42.14576 -127.06448 41219 ft 485 kts 145°
2026-05-07 13:08 42.09218 -127.01263 41219 ft 485 kts 145°
2026-05-07 13:09 42.03731 -126.95965 41215 ft 485 kts 145°
2026-05-07 13:09 41.98237 -126.90672 41216 ft 485 kts 145°
2026-05-07 13:10 41.92752 -126.85396 41214 ft 485 kts 145°
2026-05-07 13:10 41.87296 -126.80075 41214 ft 485 kts 141°
2026-05-07 13:11 41.82157 -126.74196 41209 ft 486 kts 140°
2026-05-07 13:11 41.77005 -126.68336 41209 ft 486 kts 141°
2026-05-07 13:12 41.71866 -126.62563 41206 ft 486 kts 141°
2026-05-07 13:12 41.66675 -126.56765 41209 ft 485 kts 141°
2026-05-07 13:13 41.61486 -126.50989 41207 ft 485 kts 141°
2026-05-07 13:13 41.56292 -126.45220 41204 ft 485 kts 141°
2026-05-07 13:14 41.51099 -126.39466 41201 ft 485 kts 141°
2026-05-07 13:14 41.45892 -126.33707 41201 ft 486 kts 141°
2026-05-07 13:15 41.40686 -126.27965 41197 ft 486 kts 141°
2026-05-07 13:15 41.35475 -126.22227 41197 ft 485 kts 141°
2026-05-07 13:16 41.30297 -126.16538 41198 ft 486 kts 141°
2026-05-07 13:16 41.25082 -126.10822 41195 ft 486 kts 141°
2026-05-07 13:17 41.19866 -126.05116 41192 ft 486 kts 141°
2026-05-07 13:17 41.14644 -125.99416 41192 ft 486 kts 142°
2026-05-07 13:18 41.09411 -125.93718 41192 ft 486 kts 142°
2026-05-07 13:18 41.05072 -125.89000 41184 ft 486 kts 142°
2026-05-07 13:19 40.98954 -125.82363 41190 ft 486 kts 142°
2026-05-07 13:19 40.94603 -125.77652 41187 ft 486 kts 142°
2026-05-07 13:20 40.89365 -125.71995 41184 ft 486 kts 142°
2026-05-07 13:20 40.84115 -125.66335 41182 ft 486 kts 142°
2026-05-07 13:21 40.78913 -125.60738 41183 ft 486 kts 142°
2026-05-07 13:21 40.73667 -125.55105 41179 ft 486 kts 142°
2026-05-07 13:22 40.68414 -125.49478 41182 ft 487 kts 142°
2026-05-07 13:22 40.63148 -125.43849 41182 ft 487 kts 142°
2026-05-07 13:23 40.57880 -125.38228 41182 ft 487 kts 142°
2026-05-07 13:23 40.52610 -125.32618 41175 ft 487 kts 142°
2026-05-07 13:24 40.47337 -125.27015 41175 ft 488 kts 142°
2026-05-07 13:24 40.42052 -125.21412 41172 ft 488 kts 142°
2026-05-07 13:25 40.36765 -125.15819 41172 ft 488 kts 142°
2026-05-07 13:25 40.31620 -125.10386 41169 ft 489 kts 142°
2026-05-07 13:26 40.26320 -125.04802 41168 ft 489 kts 142°
2026-05-07 13:26 40.21021 -124.99230 41167 ft 489 kts 143°
2026-05-07 13:27 40.15705 -124.93652 41168 ft 489 kts 143°
2026-05-07 13:27 40.10386 -124.88082 41163 ft 490 kts 143°
2026-05-07 13:28 40.05056 -124.82512 41163 ft 490 kts 143°
2026-05-07 13:28 39.99736 -124.76964 41162 ft 490 kts 143°
2026-05-07 13:29 39.94393 -124.71404 41158 ft 491 kts 143°
2026-05-07 13:29 39.89088 -124.65894 41158 ft 491 kts 143°
2026-05-07 13:30 39.83741 -124.60352 41159 ft 491 kts 143°
2026-05-07 13:30 39.78393 -124.54821 41163 ft 491 kts 143°
2026-05-07 13:31 39.73033 -124.49289 41155 ft 492 kts 143°
2026-05-07 13:31 39.67804 -124.43902 41152 ft 492 kts 143°
2026-05-07 13:32 39.62433 -124.38381 41156 ft 492 kts 143°
2026-05-07 13:32 39.57426 -124.33244 41156 ft 492 kts 143°
2026-05-07 13:33 39.52056 -124.27745 41152 ft 492 kts 143°
2026-05-07 13:33 39.46711 -124.22282 41153 ft 492 kts 143°
2026-05-07 13:34 39.38641 -124.14056 41157 ft 492 kts 143°
2026-05-07 13:35 39.33257 -124.08582 41150 ft 493 kts 143°
2026-05-07 13:35 39.27856 -124.03101 41158 ft 493 kts 143°
2026-05-07 13:36 39.22461 -123.97638 41153 ft 494 kts 143°
2026-05-07 13:36 39.17045 -123.92164 41157 ft 494 kts 143°
2026-05-07 13:37 39.11641 -123.86714 41154 ft 494 kts 143°
2026-05-07 13:37 39.08967 -123.84021 41020 ft 494 kts 143°
2026-05-07 13:37 39.06265 -123.81303 40647 ft 492 kts 143°
2026-05-07 13:37 39.03568 -123.78592 40014 ft 492 kts 143°
2026-05-07 13:38 39.00864 -123.75857 39398 ft 493 kts 142°
2026-05-07 13:38 38.98332 -123.72893 38756 ft 494 kts 136°
2026-05-07 13:38 38.95894 -123.69772 38031 ft 494 kts 135°
2026-05-07 13:38 38.93466 -123.66640 37366 ft 494 kts 135°
2026-05-07 13:39 38.91026 -123.63501 36692 ft 495 kts 135°
2026-05-07 13:39 38.88609 -123.60398 35995 ft 495 kts 135°
2026-05-07 13:39 38.86155 -123.57255 35265 ft 496 kts 135°
2026-05-07 13:39 38.83702 -123.54116 34463 ft 499 kts 135°
2026-05-07 13:40 38.81235 -123.50965 33574 ft 502 kts 135°
2026-05-07 13:40 38.78765 -123.47812 32702 ft 503 kts 135°
2026-05-07 13:40 38.76307 -123.44680 31842 ft 504 kts 135°
2026-05-07 13:40 38.73819 -123.41512 30950 ft 506 kts 135°
2026-05-07 13:41 38.71311 -123.38322 29988 ft 509 kts 135°
2026-05-07 13:41 38.68800 -123.35131 29066 ft 508 kts 135°
2026-05-07 13:41 38.66304 -123.31964 28422 ft 503 kts 135°
2026-05-07 13:41 38.63846 -123.28848 28196 ft 489 kts 135°
2026-05-07 13:42 38.61462 -123.25828 28051 ft 474 kts 135°
2026-05-07 13:42 38.59150 -123.22902 27910 ft 460 kts 135°
2026-05-07 13:42 38.56908 -123.20068 27748 ft 448 kts 135°
2026-05-07 13:42 38.54711 -123.17292 27549 ft 437 kts 135°
2026-05-07 13:43 38.52559 -123.14577 27044 ft 435 kts 135°
2026-05-07 13:43 38.50410 -123.11865 26518 ft 433 kts 135°
2026-05-07 13:43 38.48278 -123.09171 26039 ft 430 kts 135°
2026-05-07 13:43 38.46159 -123.06498 25563 ft 427 kts 135°
2026-05-07 13:44 38.44049 -123.03839 25102 ft 425 kts 135°
2026-05-07 13:44 38.41952 -123.01198 24642 ft 422 kts 135°
2026-05-07 13:44 38.39891 -122.98605 24198 ft 419 kts 135°
2026-05-07 13:44 38.37825 -122.96008 23749 ft 416 kts 135°
2026-05-07 13:45 38.35770 -122.93426 23189 ft 414 kts 135°
2026-05-07 13:45 38.33732 -122.90867 22681 ft 410 kts 135°
2026-05-07 13:45 38.31706 -122.88326 22170 ft 407 kts 135°
2026-05-07 13:45 38.29691 -122.85802 21672 ft 404 kts 135°
2026-05-07 13:46 38.27702 -122.83312 21212 ft 400 kts 135°
2026-05-07 13:46 38.25723 -122.80836 20725 ft 396 kts 135°
2026-05-07 13:46 38.23742 -122.78423 20281 ft 393 kts 139°
2026-05-07 13:46 38.21446 -122.76580 19821 ft 388 kts 159°
2026-05-07 13:47 38.18876 -122.75614 19368 ft 384 kts 168°
2026-05-07 13:47 38.16274 -122.74878 18911 ft 381 kts 168°
2026-05-07 13:47 38.13687 -122.74156 18460 ft 379 kts 168°
2026-05-07 13:47 38.11126 -122.73432 17966 ft 376 kts 168°
2026-05-07 13:48 38.08589 -122.72707 17514 ft 372 kts 168°
2026-05-07 13:48 38.06082 -122.71986 17067 ft 367 kts 168°
2026-05-07 13:48 38.03602 -122.71270 16632 ft 363 kts 168°
2026-05-07 13:48 38.01144 -122.70560 16195 ft 360 kts 168°
2026-05-07 13:49 37.98742 -122.69866 15680 ft 359 kts 168°
2026-05-07 13:49 37.96306 -122.69162 15180 ft 358 kts 168°
2026-05-07 13:49 37.93892 -122.68466 14741 ft 354 kts 168°
2026-05-07 13:49 37.91500 -122.67757 14308 ft 351 kts 166°
2026-05-07 13:50 37.89268 -122.66559 13862 ft 349 kts 147°
2026-05-07 13:50 37.87358 -122.64692 13410 ft 346 kts 140°
2026-05-07 13:50 37.85532 -122.62717 12967 ft 343 kts 140°
2026-05-07 13:50 37.83727 -122.60771 12537 ft 340 kts 140°
2026-05-07 13:51 37.81943 -122.58862 12229 ft 334 kts 141°
2026-05-07 13:51 37.80218 -122.57021 12084 ft 321 kts 141°
2026-05-07 13:51 37.78543 -122.55243 11949 ft 309 kts 141°
2026-05-07 13:51 37.76897 -122.53499 11703 ft 301 kts 141°
2026-05-07 13:52 37.75292 -122.51802 11384 ft 300 kts 141°
2026-05-07 13:52 37.73722 -122.50144 11070 ft 298 kts 141°
2026-05-07 13:52 37.72203 -122.48553 10939 ft 294 kts 142°
2026-05-07 13:52 37.70620 -122.46877 10931 ft 300 kts 141°
2026-05-07 13:53 37.69025 -122.45168 10920 ft 301 kts 141°
2026-05-07 13:53 37.67428 -122.43457 10684 ft 304 kts 141°
2026-05-07 13:53 37.65803 -122.41717 10285 ft 304 kts 141°
2026-05-07 13:53 37.64203 -122.40004 10003 ft 298 kts 141°
2026-05-07 13:54 37.62622 -122.38312 9591 ft 297 kts 141°
2026-05-07 13:54 37.60990 -122.36739 9171 ft 294 kts 148°
2026-05-07 13:54 37.59244 -122.35465 8896 ft 287 kts 152°
2026-05-07 13:54 37.57502 -122.34276 8710 ft 278 kts 153°
2026-05-07 13:55 37.55823 -122.33138 8532 ft 270 kts 153°
2026-05-07 13:55 37.54196 -122.32036 8363 ft 261 kts 153°
2026-05-07 13:55 37.52615 -122.30964 8196 ft 254 kts 153°
2026-05-07 13:55 37.51079 -122.29921 7971 ft 249 kts 153°
2026-05-07 13:56 37.49565 -122.28893 7716 ft 246 kts 153°
2026-05-07 13:56 37.48087 -122.27890 7449 ft 244 kts 153°
2026-05-07 13:56 37.46598 -122.26878 7189 ft 242 kts 153°
2026-05-07 13:56 37.45118 -122.25872 6905 ft 241 kts 153°
2026-05-07 13:57 37.43656 -122.24878 6628 ft 240 kts 153°
2026-05-07 13:57 37.42177 -122.23875 6338 ft 239 kts 153°
2026-05-07 13:57 37.40717 -122.22889 6041 ft 238 kts 153°
2026-05-07 13:57 37.39278 -122.21844 5721 ft 239 kts 144°
2026-05-07 13:58 37.38209 -122.20272 5412 ft 238 kts 118°
2026-05-07 13:58 37.37501 -122.18455 5169 ft 236 kts 114°
2026-05-07 13:58 37.36839 -122.16574 4909 ft 234 kts 113°
2026-05-07 13:58 37.36228 -122.14716 4741 ft 226 kts 107°
2026-05-07 13:59 37.36115 -122.12966 4588 ft 216 kts 78°
2026-05-07 13:59 37.36692 -122.11295 4479 ft 203 kts 56°
2026-05-07 13:59 37.37479 -122.09848 4239 ft 199 kts 53°
2026-05-07 13:59 37.38295 -122.08444 3964 ft 197 kts 52°
2026-05-07 14:00 37.39306 -122.07310 3654 ft 195 kts 28°
2026-05-07 14:00 37.40501 -122.06566 3387 ft 193 kts 24°
2026-05-07 14:00 37.41731 -122.05884 3102 ft 192 kts 23°
2026-05-07 14:00 37.42950 -122.05220 3006 ft 190 kts 23°
2026-05-07 14:01 37.44171 -122.04563 2995 ft 191 kts 22°
2026-05-07 14:01 37.45471 -122.04267 2991 ft 192 kts 353°
2026-05-07 14:01 37.46700 -122.04872 2998 ft 190 kts 327°
2026-05-07 14:01 37.47785 -122.05807 3009 ft 189 kts 323°
2026-05-07 14:02 37.48808 -122.06850 3001 ft 189 kts 314°
2026-05-07 14:02 37.49629 -122.08141 3007 ft 189 kts 303°
2026-05-07 14:02 37.50301 -122.09559 3016 ft 188 kts 299°
2026-05-07 14:02 37.50867 -122.10846 3010 ft 188 kts 298°
2026-05-07 14:03 37.51508 -122.12268 3012 ft 188 kts 298°
2026-05-07 14:03 37.52130 -122.13729 3020 ft 188 kts 297°
2026-05-07 14:03 37.52731 -122.15169 3018 ft 187 kts 297°
2026-05-07 14:03 37.53350 -122.16638 3012 ft 187 kts 297°
2026-05-07 14:04 37.53953 -122.18068 3017 ft 187 kts 297°
2026-05-07 14:04 37.54563 -122.19520 2937 ft 188 kts 297°
2026-05-07 14:04 37.55166 -122.20956 2700 ft 184 kts 297°
2026-05-07 14:04 37.55759 -122.22371 2455 ft 180 kts 297°
2026-05-07 14:05 37.56335 -122.23743 2209 ft 171 kts 297°
2026-05-07 14:05 37.56813 -122.24883 2011 ft 162 kts 297°
2026-05-07 14:05 37.57155 -122.25698 1856 ft 155 kts 297°
2026-05-07 14:05 37.57762 -122.27144 1582 ft 141 kts 297°
2026-05-07 14:06 37.58157 -122.28086 1427 ft 131 kts 296°
2026-05-07 14:06 37.58579 -122.29096 1268 ft 130 kts 296°
2026-05-07 14:06 37.59007 -122.30120 1085 ft 130 kts 297°
2026-05-07 14:06 37.59422 -122.31108 901 ft 129 kts 297°
2026-05-07 14:07 37.59843 -122.32113 708 ft 129 kts 297°
2026-05-07 14:07 37.60122 -122.32782 598 ft 129 kts 297°
2026-05-07 14:07 37.60541 -122.33776 417 ft 129 kts 298°
2026-05-07 14:07 37.61075 -122.35074 207 ft 129 kts 297°
2026-05-07 14:08 37.61367 -122.35768 66 ft 128 kts 298°
2026-05-07 14:08 37.61763 -122.36706 29 ft 112 kts 298°
2026-05-07 14:08 37.62022 -122.37315 28 ft 54 kts 298°
2026-05-07 14:08 37.62104 -122.37511 28 ft 9 kts 298°
2026-05-07 14:09 37.62137 -122.37589 28 ft 11 kts 298°
2026-05-07 14:09 37.62139 -122.37683 28 ft 12 kts 237°
2026-05-07 14:09 37.62083 -122.37769 28 ft 14 kts 229°
2026-05-07 14:09 37.62014 -122.37870 28 ft 16 kts 229°
2026-05-07 14:10 37.61931 -122.37948 28 ft 12 kts 179°
2026-05-07 14:10 37.61849 -122.37895 28 ft 15 kts 154°
2026-05-07 14:10 37.61793 -122.37872 28 ft 16 kts 166°
2026-05-07 14:10 37.61671 -122.37875 28 ft 19 kts 195°
2026-05-07 14:11 37.61547 -122.37950 28 ft 21 kts 207°
2026-05-07 14:11 37.61407 -122.38042 28 ft 24 kts 207°
2026-05-07 14:11 37.61256 -122.38142 28 ft 25 kts 207°
2026-05-07 14:11 37.61095 -122.38248 28 ft 27 kts 207°
2026-05-07 14:12 37.60944 -122.38347 28 ft 12 kts 207°
2026-05-07 14:12 37.60895 -122.38380 28 ft 9 kts 208°
2026-05-07 14:12 37.60873 -122.38448 28 ft 10 kts 278°
2026-05-07 14:12 37.60879 -122.38545 28 ft 12 kts 283°
2026-05-07 14:13 37.60921 -122.38651 28 ft 15 kts 298°
2026-05-07 14:13 37.60972 -122.38774 28 ft 16 kts 297°
2026-05-07 14:13 37.61039 -122.38876 28 ft 13 kts 339°
2026-05-07 14:13 37.61120 -122.38866 28 ft 10 kts 334°
2026-05-07 14:14 37.61145 -122.38909 28 ft 0 kts 300°
2026-05-07 14:15 37.61148 -122.38917 28 ft 3 kts 298°
2026-05-07 14:15 37.61157 -122.38939 28 ft 1 kts 298°
2026-05-07 14:15 37.61158 -122.38942 28 ft 0 kts 298°
2026-05-07 14:16 37.61160 -122.38945 28 ft 0 kts 298°